CPA881 KLAX-VHHH

Flight info

Callsign CPA881
Flight time 14h 45m
Altitude 30000
Route DARRK3 STOKD DCT ZONAL J501 PYE Q1 ENVIE DCT BOXER DCT FULMR DCT FASEL DCT 50N140W 52N150W/N0491F320 53N160W DCT RADIC DCT EXAMY DCT AAMYY/N0487F340 DCT ASPIN DCT AKISU DCT AGEDI DCT ADGOR R591 ADNAP Y807 NOGIX/N0487F360 Y807 LALID Y804 INUBO Y50 KOSHI A1 MAGOG V512 ABBEY
Aircraft B77W/H-SDE1E2E3FGHIJ2J3J4J5M1RWXY/LB1D1

Departure

Time 2026-04-22 07:44
Airport Los Angeles International Airport (KLAX)

Arrival

Time 2026-04-22 22:29
Airport Hong Kong International Airport (VHHH)
Time Latitude Longitude Altitude Speed Heading
2026-04-22 06:27 33.94541 -118.40999 98 ft 0 kts 263°
2026-04-22 07:29 33.94544 -118.40975 97 ft 4 kts 263°
2026-04-22 07:29 33.94544 -118.40944 97 ft 4 kts 289°
2026-04-22 07:29 33.94530 -118.40919 99 ft 4 kts 326°
2026-04-22 07:29 33.94510 -118.40906 99 ft 1 kts 337°
2026-04-22 07:30 33.94519 -118.40914 100 ft 4 kts 317°
2026-04-22 07:30 33.94530 -118.40915 97 ft 0 kts 354°
2026-04-22 07:33 33.94555 -118.40913 100 ft 8 kts 10°
2026-04-22 07:33 33.94619 -118.40900 101 ft 10 kts 356°
2026-04-22 07:34 33.94686 -118.40908 98 ft 10 kts 353°
2026-04-22 07:34 33.94738 -118.40947 99 ft 10 kts 288°
2026-04-22 07:34 33.94736 -118.41027 98 ft 10 kts 264°
2026-04-22 07:34 33.94728 -118.41107 98 ft 10 kts 262°
2026-04-22 07:35 33.94713 -118.41186 99 ft 10 kts 252°
2026-04-22 07:35 33.94695 -118.41264 100 ft 10 kts 259°
2026-04-22 07:35 33.94683 -118.41343 99 ft 10 kts 251°
2026-04-22 07:35 33.94626 -118.41371 99 ft 10 kts 177°
2026-04-22 07:36 33.94552 -118.41363 101 ft 13 kts 173°
2026-04-22 07:36 33.94450 -118.41348 97 ft 17 kts 173°
2026-04-22 07:36 33.94331 -118.41330 97 ft 17 kts 172°
2026-04-22 07:36 33.94211 -118.41312 98 ft 17 kts 173°
2026-04-22 07:37 33.94091 -118.41294 97 ft 17 kts 173°
2026-04-22 07:37 33.93972 -118.41277 99 ft 17 kts 173°
2026-04-22 07:37 33.93856 -118.41260 98 ft 12 kts 173°
2026-04-22 07:37 33.93780 -118.41244 101 ft 11 kts 154°
2026-04-22 07:38 33.93761 -118.41159 100 ft 11 kts 85°
2026-04-22 07:38 33.93771 -118.41050 98 ft 15 kts 82°
2026-04-22 07:38 33.93786 -118.40906 98 ft 19 kts 83°
2026-04-22 07:38 33.93803 -118.40737 100 ft 21 kts 82°
2026-04-22 07:39 33.93822 -118.40564 100 ft 21 kts 83°
2026-04-22 07:39 33.93838 -118.40392 102 ft 21 kts 83°
2026-04-22 07:39 33.93856 -118.40219 100 ft 21 kts 83°
2026-04-22 07:39 33.93874 -118.40047 102 ft 21 kts 83°
2026-04-22 07:40 33.93892 -118.39874 100 ft 21 kts 84°
2026-04-22 07:40 33.93908 -118.39701 101 ft 21 kts 83°
2026-04-22 07:40 33.93927 -118.39531 101 ft 21 kts 82°
2026-04-22 07:40 33.93948 -118.39359 101 ft 21 kts 83°
2026-04-22 07:41 33.93963 -118.39186 99 ft 21 kts 83°
2026-04-22 07:41 33.93979 -118.39013 99 ft 21 kts 83°
2026-04-22 07:41 33.93997 -118.38841 102 ft 21 kts 83°
2026-04-22 07:41 33.94015 -118.38668 99 ft 21 kts 83°
2026-04-22 07:42 33.94033 -118.38496 101 ft 21 kts 83°
2026-04-22 07:42 33.94050 -118.38323 101 ft 21 kts 83°
2026-04-22 07:42 33.94066 -118.38164 98 ft 11 kts 82°
2026-04-22 07:42 33.94076 -118.38073 98 ft 10 kts 82°
2026-04-22 07:43 33.94057 -118.38011 98 ft 8 kts 147°
2026-04-22 07:43 33.94001 -118.38008 98 ft 8 kts 205°
2026-04-22 07:43 33.93978 -118.38071 100 ft 9 kts 261°
2026-04-22 07:43 33.93957 -118.38286 103 ft 55 kts 264°
2026-04-22 07:44 33.93876 -118.39079 99 ft 134 kts 263°
2026-04-22 07:44 33.93735 -118.40492 113 ft 202 kts 263°
2026-04-22 07:44 33.93556 -118.42200 849 ft 206 kts 263°
2026-04-22 07:44 33.93380 -118.43874 1837 ft 194 kts 264°
2026-04-22 07:45 33.93221 -118.45502 2158 ft 198 kts 264°
2026-04-22 07:45 33.93064 -118.47175 2381 ft 208 kts 265°
2026-04-22 07:45 33.92916 -118.48975 2512 ft 225 kts 265°
2026-04-22 07:45 33.92760 -118.50905 2760 ft 238 kts 264°
2026-04-22 07:46 33.92593 -118.52947 2991 ft 254 kts 265°
2026-04-22 07:46 33.92417 -118.55077 3397 ft 264 kts 265°
2026-04-22 07:46 33.92234 -118.57306 3924 ft 270 kts 265°
2026-04-22 07:46 33.92046 -118.59573 4570 ft 272 kts 265°
2026-04-22 07:47 33.91857 -118.61839 5232 ft 273 kts 265°
2026-04-22 07:47 33.91723 -118.64128 5878 ft 275 kts 269°
2026-04-22 07:47 33.91711 -118.66425 6487 ft 276 kts 270°
2026-04-22 07:47 33.91723 -118.68749 7083 ft 279 kts 270°
2026-04-22 07:48 33.91732 -118.71092 7675 ft 281 kts 270°
2026-04-22 07:48 33.91733 -118.73451 8269 ft 283 kts 270°
2026-04-22 07:48 33.91728 -118.75828 8837 ft 285 kts 270°
2026-04-22 07:48 33.91720 -118.78212 9424 ft 286 kts 269°
2026-04-22 07:49 33.91710 -118.80607 10030 ft 286 kts 269°
2026-04-22 07:49 33.91742 -118.83012 10436 ft 292 kts 276°
2026-04-22 07:49 33.92399 -118.85382 10515 ft 306 kts 294°
2026-04-22 07:49 33.93365 -118.87747 10651 ft 323 kts 292°
2026-04-22 07:50 33.94308 -118.90279 10829 ft 340 kts 291°
2026-04-22 07:50 33.95278 -118.92924 11237 ft 350 kts 291°
2026-04-22 07:50 33.96358 -118.95572 11665 ft 357 kts 301°
2026-04-22 07:50 33.98126 -118.97728 12175 ft 370 kts 321°
2026-04-22 07:51 34.00449 -118.99137 12863 ft 379 kts 337°
2026-04-22 07:51 34.03087 -118.99713 13448 ft 391 kts 349°
2026-04-22 07:51 34.05818 -118.99971 14011 ft 396 kts 349°
2026-04-22 07:51 34.08571 -119.00284 14586 ft 399 kts 348°
2026-04-22 07:52 34.11321 -119.00675 15148 ft 394 kts 341°
2026-04-22 07:52 34.13825 -119.01867 15453 ft 384 kts 319°
2026-04-22 07:52 34.15789 -119.03991 15979 ft 376 kts 304°
2026-04-22 07:52 34.17289 -119.06546 16627 ft 372 kts 297°
2026-04-22 07:53 34.18658 -119.09199 17211 ft 373 kts 296°
2026-04-22 07:53 34.19990 -119.11849 17745 ft 375 kts 296°
2026-04-22 07:53 34.21348 -119.14556 18270 ft 378 kts 296°
2026-04-22 07:53 34.22721 -119.17277 18811 ft 380 kts 296°
2026-04-22 07:54 34.24108 -119.20010 19322 ft 383 kts 296°
2026-04-22 07:54 34.25510 -119.22754 19837 ft 386 kts 296°
2026-04-22 07:54 34.26926 -119.25520 20351 ft 387 kts 296°
2026-04-22 07:54 34.28349 -119.28294 20843 ft 390 kts 296°
2026-04-22 07:55 34.29783 -119.31090 21312 ft 392 kts 296°
2026-04-22 07:55 34.31222 -119.33897 21743 ft 395 kts 296°
2026-04-22 07:55 34.32671 -119.36725 22195 ft 396 kts 296°
2026-04-22 07:55 34.34126 -119.39568 22653 ft 399 kts 296°
2026-04-22 07:56 34.35589 -119.42430 23072 ft 401 kts 296°
2026-04-22 07:56 34.37059 -119.45308 23500 ft 403 kts 296°
2026-04-22 07:56 34.38537 -119.48204 23919 ft 406 kts 296°
2026-04-22 07:56 34.40024 -119.51118 24313 ft 408 kts 297°
2026-04-22 07:57 34.41590 -119.53996 24739 ft 412 kts 303°
2026-04-22 07:57 34.43539 -119.56579 25160 ft 418 kts 309°
2026-04-22 07:57 34.45613 -119.59053 25590 ft 419 kts 309°
2026-04-22 07:57 34.47704 -119.61521 26012 ft 420 kts 309°
2026-04-22 07:58 34.49789 -119.64003 26388 ft 420 kts 309°
2026-04-22 07:58 34.51864 -119.66506 26742 ft 421 kts 309°
2026-04-22 07:58 34.53938 -119.69035 27093 ft 422 kts 309°
2026-04-22 07:58 34.56004 -119.71566 27446 ft 423 kts 309°
2026-04-22 07:59 34.58079 -119.74118 27776 ft 424 kts 308°
2026-04-22 07:59 34.60143 -119.76669 28135 ft 424 kts 308°
2026-04-22 07:59 34.62215 -119.79228 28400 ft 425 kts 308°
2026-04-22 07:59 34.64260 -119.81761 28705 ft 426 kts 308°
2026-04-22 08:00 34.66334 -119.84330 28994 ft 426 kts 308°
2026-04-22 08:00 34.68413 -119.86906 29246 ft 427 kts 308°
2026-04-22 08:00 34.70494 -119.89487 29533 ft 428 kts 308°
2026-04-22 08:00 34.72577 -119.92069 29814 ft 428 kts 308°
2026-04-22 08:01 34.74660 -119.94655 30035 ft 428 kts 308°
2026-04-22 08:01 34.76752 -119.97256 30100 ft 432 kts 308°
2026-04-22 08:01 34.80955 -120.02487 30188 ft 431 kts 308°
2026-04-22 08:02 34.85109 -120.07649 30190 ft 423 kts 308°
2026-04-22 08:02 34.89193 -120.12743 30196 ft 419 kts 308°
2026-04-22 08:03 34.92578 -120.16977 30188 ft 421 kts 308°
2026-04-22 08:03 34.96691 -120.22134 30211 ft 427 kts 308°
2026-04-22 08:04 35.00847 -120.27339 30202 ft 429 kts 308°
2026-04-22 08:04 35.05006 -120.32557 30199 ft 429 kts 308°
2026-04-22 08:05 35.09166 -120.37769 30200 ft 429 kts 308°
2026-04-22 08:05 35.13528 -120.42743 30201 ft 429 kts 311°
2026-04-22 08:06 35.17969 -120.47628 30190 ft 428 kts 310°
2026-04-22 08:06 35.22362 -120.52508 30199 ft 425 kts 310°
2026-04-22 08:07 35.26715 -120.57393 30196 ft 425 kts 310°
2026-04-22 08:07 35.31084 -120.62314 30191 ft 428 kts 310°
2026-04-22 08:08 35.35475 -120.67265 30175 ft 429 kts 310°
2026-04-22 08:08 35.39866 -120.72223 30194 ft 430 kts 310°
2026-04-22 08:09 35.44259 -120.77189 30190 ft 429 kts 310°
2026-04-22 08:09 35.48600 -120.82104 30212 ft 427 kts 310°
2026-04-22 08:10 35.52914 -120.87104 30192 ft 426 kts 309°
2026-04-22 08:10 35.57185 -120.92118 30209 ft 424 kts 309°
2026-04-22 08:11 35.61458 -120.97135 30217 ft 424 kts 309°
2026-04-22 08:11 35.65734 -121.02153 30210 ft 425 kts 309°
2026-04-22 08:12 35.70003 -121.07167 30219 ft 424 kts 309°
2026-04-22 08:12 35.74268 -121.12183 30228 ft 423 kts 309°
2026-04-22 08:13 35.78527 -121.17198 30226 ft 423 kts 309°
2026-04-22 08:13 35.82778 -121.22211 30228 ft 423 kts 309°
2026-04-22 08:14 35.87027 -121.27234 30211 ft 422 kts 309°
2026-04-22 08:14 35.91234 -121.32212 30210 ft 421 kts 309°
2026-04-22 08:15 35.95454 -121.37218 30206 ft 420 kts 309°
2026-04-22 08:15 35.99665 -121.42221 30218 ft 420 kts 309°
2026-04-22 08:16 36.03882 -121.47234 30208 ft 420 kts 309°
2026-04-22 08:16 36.08082 -121.52233 30216 ft 418 kts 309°
2026-04-22 08:17 36.12279 -121.57240 30211 ft 420 kts 309°
2026-04-22 08:17 36.16599 -121.62150 30199 ft 426 kts 314°
2026-04-22 08:18 36.21527 -121.66343 30191 ft 434 kts 321°
2026-04-22 08:18 36.26923 -121.69824 30204 ft 438 kts 324°
2026-04-22 08:19 36.32321 -121.73179 30210 ft 437 kts 324°
2026-04-22 08:19 36.37746 -121.76576 30192 ft 436 kts 324°
2026-04-22 08:20 36.43155 -121.79980 30176 ft 434 kts 323°
2026-04-22 08:20 36.48530 -121.83378 30201 ft 433 kts 323°
2026-04-22 08:21 36.53901 -121.86786 30196 ft 434 kts 323°
2026-04-22 08:21 36.59282 -121.90203 30198 ft 435 kts 323°
2026-04-22 08:22 36.64679 -121.93634 30197 ft 436 kts 323°
2026-04-22 08:22 36.70090 -121.97080 30198 ft 437 kts 323°
2026-04-22 08:23 36.75511 -122.00537 30196 ft 439 kts 323°
2026-04-22 08:23 36.80907 -122.03984 30197 ft 438 kts 324°
2026-04-22 08:24 36.86328 -122.07449 30192 ft 437 kts 323°
2026-04-22 08:24 36.91742 -122.10902 30189 ft 436 kts 323°
2026-04-22 08:25 36.97146 -122.14351 30189 ft 436 kts 323°
2026-04-22 08:25 37.02544 -122.17805 30183 ft 436 kts 323°
2026-04-22 08:26 37.07939 -122.21266 30191 ft 436 kts 323°
2026-04-22 08:26 37.13336 -122.24731 30191 ft 436 kts 323°
2026-04-22 08:27 37.18741 -122.28207 30174 ft 438 kts 323°
2026-04-22 08:27 37.24165 -122.31702 30181 ft 439 kts 323°
2026-04-22 08:28 37.29598 -122.35208 30179 ft 438 kts 323°
2026-04-22 08:28 37.35010 -122.38707 30179 ft 438 kts 323°
2026-04-22 08:29 37.40441 -122.42224 30179 ft 439 kts 323°
2026-04-22 08:29 37.45880 -122.45750 30176 ft 440 kts 323°
2026-04-22 08:30 37.51317 -122.49282 30174 ft 440 kts 323°
2026-04-22 08:30 37.56759 -122.52822 30177 ft 440 kts 323°
2026-04-22 08:31 37.62159 -122.56339 30173 ft 439 kts 323°
2026-04-22 08:32 37.70304 -122.61659 30174 ft 439 kts 323°
2026-04-22 08:32 37.75731 -122.65212 30170 ft 439 kts 323°
2026-04-22 08:33 37.81160 -122.68769 30166 ft 439 kts 323°
2026-04-22 08:33 37.86580 -122.72330 30159 ft 439 kts 323°
2026-04-22 08:34 37.92007 -122.75898 30160 ft 439 kts 323°
2026-04-22 08:34 37.97427 -122.79468 30169 ft 439 kts 323°
2026-04-22 08:35 38.02850 -122.83048 30147 ft 440 kts 323°
2026-04-22 08:35 38.08291 -122.86647 30148 ft 442 kts 324°
2026-04-22 08:36 38.13752 -122.90264 30166 ft 443 kts 324°
2026-04-22 08:36 38.19239 -122.93906 30167 ft 446 kts 324°
2026-04-22 08:37 38.24749 -122.97564 30156 ft 448 kts 324°
2026-04-22 08:37 38.30254 -123.01226 30159 ft 449 kts 324°
2026-04-22 08:38 38.35793 -123.04917 30154 ft 449 kts 324°
2026-04-22 08:38 38.41324 -123.08610 30146 ft 448 kts 324°
2026-04-22 08:39 38.46842 -123.12302 30146 ft 447 kts 324°
2026-04-22 08:39 38.52349 -123.15990 30154 ft 447 kts 324°
2026-04-22 08:40 38.57854 -123.19685 30150 ft 446 kts 324°
2026-04-22 08:40 38.63354 -123.23388 30138 ft 447 kts 324°
2026-04-22 08:41 38.68856 -123.27096 30146 ft 448 kts 324°
2026-04-22 08:41 38.74380 -123.30824 30141 ft 449 kts 325°
2026-04-22 08:42 38.79911 -123.34565 30135 ft 450 kts 325°
2026-04-22 08:42 38.85451 -123.38315 30141 ft 450 kts 325°
2026-04-22 08:43 38.91001 -123.42082 30138 ft 452 kts 325°
2026-04-22 08:43 38.96565 -123.45864 30144 ft 453 kts 325°
2026-04-22 08:44 39.02135 -123.49659 30140 ft 453 kts 325°
2026-04-22 08:44 39.07713 -123.53462 30137 ft 454 kts 326°
2026-04-22 08:45 39.13309 -123.57282 30139 ft 456 kts 326°
2026-04-22 08:45 39.18927 -123.61131 30135 ft 458 kts 326°
2026-04-22 08:46 39.24565 -123.64999 30144 ft 460 kts 326°
2026-04-22 08:46 39.30226 -123.68889 30139 ft 462 kts 326°
2026-04-22 08:47 39.35912 -123.72801 30145 ft 464 kts 326°
2026-04-22 08:47 39.41621 -123.76739 30138 ft 466 kts 326°
2026-04-22 08:48 39.47341 -123.80693 30137 ft 466 kts 327°
2026-04-22 08:48 39.53071 -123.84660 30134 ft 466 kts 327°
2026-04-22 08:49 39.58791 -123.88626 30136 ft 466 kts 327°
2026-04-22 08:49 39.64506 -123.92598 30138 ft 467 kts 327°
2026-04-22 08:50 39.70213 -123.96572 30136 ft 469 kts 327°
2026-04-22 08:50 39.75959 -124.00577 30130 ft 470 kts 327°
2026-04-22 08:51 39.81716 -124.04604 30131 ft 470 kts 327°
2026-04-22 08:51 39.87465 -124.08625 30124 ft 469 kts 327°
2026-04-22 08:52 39.93203 -124.12651 30126 ft 468 kts 327°
2026-04-22 08:52 39.97970 -124.15998 30127 ft 468 kts 327°
2026-04-22 08:53 40.03698 -124.20038 30129 ft 468 kts 327°
2026-04-22 08:53 40.09425 -124.24072 30132 ft 469 kts 327°
2026-04-22 08:54 40.15166 -124.28129 30130 ft 470 kts 327°
2026-04-22 08:54 40.20917 -124.32203 30130 ft 471 kts 327°
2026-04-22 08:55 40.26681 -124.36290 30137 ft 471 kts 327°
2026-04-22 08:55 40.32448 -124.40390 30124 ft 472 kts 327°
2026-04-22 08:56 40.38214 -124.44498 30126 ft 471 kts 327°
2026-04-22 08:56 40.43973 -124.48612 30131 ft 471 kts 327°
2026-04-22 08:57 40.49735 -124.52731 30132 ft 472 kts 327°
2026-04-22 08:57 40.55511 -124.56867 30127 ft 473 kts 327°
2026-04-22 08:58 40.61289 -124.61017 30129 ft 473 kts 328°
2026-04-22 08:58 40.67073 -124.65176 30130 ft 474 kts 328°
2026-04-22 08:59 40.72854 -124.69344 30128 ft 474 kts 328°
2026-04-22 08:59 40.78644 -124.73527 30133 ft 475 kts 328°
2026-04-22 09:00 40.84443 -124.77723 30126 ft 476 kts 328°
2026-04-22 09:00 40.90250 -124.81934 30130 ft 477 kts 328°
2026-04-22 09:01 40.96071 -124.86161 30130 ft 478 kts 328°
2026-04-22 09:01 41.01900 -124.90406 30130 ft 479 kts 328°
2026-04-22 09:02 41.07744 -124.94668 30131 ft 480 kts 328°
2026-04-22 09:02 41.13595 -124.98948 30129 ft 481 kts 328°
2026-04-22 09:03 41.19454 -125.03241 30129 ft 481 kts 328°
2026-04-22 09:03 41.25331 -125.07552 30127 ft 482 kts 328°
2026-04-22 09:04 41.31165 -125.11847 30129 ft 483 kts 328°
2026-04-22 09:04 41.37039 -125.16175 30127 ft 483 kts 328°
2026-04-22 09:05 41.42924 -125.20521 30135 ft 484 kts 328°
2026-04-22 09:05 41.48811 -125.24879 30139 ft 484 kts 329°
2026-04-22 09:06 41.54706 -125.29251 30139 ft 485 kts 329°
2026-04-22 09:06 41.60607 -125.33637 30138 ft 486 kts 329°
2026-04-22 09:07 41.66515 -125.38038 30138 ft 486 kts 329°
2026-04-22 09:07 41.72430 -125.42454 30138 ft 487 kts 329°
2026-04-22 09:08 41.78353 -125.46885 30139 ft 488 kts 329°
2026-04-22 09:08 41.84286 -125.51333 30138 ft 489 kts 329°
2026-04-22 09:09 41.90191 -125.55769 30133 ft 490 kts 329°
2026-04-22 09:09 41.96144 -125.60250 30128 ft 491 kts 329°
2026-04-22 09:10 42.02100 -125.64747 30130 ft 491 kts 329°
2026-04-22 09:10 42.08065 -125.69256 30124 ft 492 kts 329°
2026-04-22 09:11 42.14041 -125.73784 30133 ft 493 kts 329°
2026-04-22 09:11 42.20034 -125.78336 30130 ft 494 kts 329°
2026-04-22 09:12 42.26025 -125.82898 30128 ft 494 kts 329°
2026-04-22 09:12 42.32016 -125.87464 30125 ft 494 kts 329°
2026-04-22 09:13 42.37987 -125.92028 30141 ft 489 kts 329°
2026-04-22 09:13 42.43797 -125.96477 30127 ft 479 kts 329°
2026-04-22 09:14 42.49618 -126.00949 30080 ft 484 kts 329°
2026-04-22 09:14 42.55479 -126.05464 30071 ft 485 kts 329°
2026-04-22 09:15 42.61346 -126.09989 30058 ft 484 kts 329°
2026-04-22 09:15 42.67192 -126.14504 30062 ft 482 kts 329°
2026-04-22 09:16 42.72828 -126.19408 30062 ft 480 kts 321°
2026-04-22 09:16 42.77779 -126.25470 30062 ft 479 kts 316°
2026-04-22 09:17 42.82639 -126.31671 30051 ft 479 kts 316°
2026-04-22 09:17 42.87535 -126.37853 30058 ft 481 kts 317°
2026-04-22 09:18 42.92456 -126.44053 30059 ft 483 kts 317°
2026-04-22 09:18 42.97399 -126.50286 30050 ft 485 kts 317°
2026-04-22 09:19 43.02317 -126.56511 30043 ft 485 kts 317°
2026-04-22 09:19 43.07273 -126.62797 30047 ft 486 kts 317°
2026-04-22 09:20 43.12231 -126.69097 30044 ft 486 kts 317°
2026-04-22 09:20 43.17183 -126.75397 30048 ft 485 kts 317°
2026-04-22 09:21 43.22116 -126.81689 30043 ft 484 kts 317°
2026-04-22 09:21 43.27048 -126.87994 30048 ft 484 kts 317°
2026-04-22 09:22 43.31960 -126.94286 30048 ft 483 kts 317°
2026-04-22 09:22 43.36866 -127.00586 30044 ft 482 kts 317°
2026-04-22 09:23 43.41764 -127.06888 30044 ft 482 kts 317°
2026-04-22 09:23 43.46652 -127.13195 30041 ft 481 kts 317°
2026-04-22 09:24 43.51531 -127.19506 30025 ft 481 kts 317°
2026-04-22 09:24 43.56367 -127.25775 30022 ft 480 kts 317°
2026-04-22 09:25 43.61223 -127.32078 30014 ft 479 kts 317°
2026-04-22 09:25 43.66060 -127.38377 30022 ft 477 kts 317°
2026-04-22 09:26 43.70880 -127.44670 30015 ft 476 kts 317°
2026-04-22 09:26 43.75687 -127.50960 30015 ft 475 kts 317°
2026-04-22 09:27 43.80475 -127.57238 30021 ft 474 kts 317°
2026-04-22 09:27 43.85257 -127.63523 30018 ft 473 kts 317°
2026-04-22 09:28 43.90030 -127.69812 30037 ft 473 kts 317°
2026-04-22 09:28 43.94797 -127.76108 30027 ft 473 kts 317°
2026-04-22 09:29 43.99563 -127.82415 30034 ft 473 kts 317°
2026-04-22 09:29 44.04323 -127.88728 30027 ft 474 kts 317°
2026-04-22 09:30 44.09055 -127.95025 30030 ft 473 kts 317°
2026-04-22 09:30 44.13814 -128.01366 30030 ft 474 kts 317°
2026-04-22 09:31 44.18575 -128.07729 30027 ft 475 kts 317°
2026-04-22 09:31 44.23340 -128.14105 30030 ft 475 kts 317°
2026-04-22 09:32 44.28095 -128.20491 30033 ft 474 kts 317°
2026-04-22 09:32 44.32841 -128.26876 30037 ft 473 kts 317°
2026-04-22 09:33 44.37575 -128.33260 30052 ft 473 kts 318°
2026-04-22 09:33 44.42312 -128.39664 30050 ft 474 kts 318°
2026-04-22 09:34 44.47015 -128.46040 30045 ft 474 kts 318°
2026-04-22 09:34 44.51750 -128.52468 30048 ft 474 kts 318°
2026-04-22 09:35 44.58854 -128.62145 30049 ft 475 kts 318°
2026-04-22 09:35 44.63590 -128.68619 30045 ft 475 kts 318°
2026-04-22 09:36 44.68324 -128.75107 30047 ft 476 kts 318°
2026-04-22 09:36 44.73053 -128.81597 30040 ft 475 kts 318°
2026-04-22 09:37 44.77778 -128.88101 30030 ft 475 kts 318°
2026-04-22 09:37 44.82493 -128.94605 30032 ft 474 kts 318°
2026-04-22 09:38 44.87189 -129.01101 30077 ft 472 kts 319°
2026-04-22 09:38 44.91872 -129.07593 30077 ft 472 kts 318°
2026-04-22 09:39 44.96547 -129.14090 30082 ft 471 kts 319°
2026-04-22 09:39 45.01220 -129.20600 30084 ft 472 kts 319°
2026-04-22 09:40 45.05887 -129.27120 30084 ft 472 kts 319°
2026-04-22 09:40 45.10551 -129.33647 30099 ft 471 kts 319°
2026-04-22 09:41 45.15206 -129.40177 30095 ft 471 kts 319°
2026-04-22 09:41 45.19079 -129.45625 30082 ft 472 kts 319°
2026-04-22 09:42 45.24491 -129.53257 30068 ft 472 kts 319°
2026-04-22 09:42 45.29143 -129.59834 30063 ft 472 kts 319°
2026-04-22 09:43 45.33039 -129.65353 30064 ft 472 kts 319°
2026-04-22 09:43 45.37675 -129.71938 30063 ft 472 kts 319°
2026-04-22 09:44 45.42289 -129.78508 30067 ft 472 kts 319°
2026-04-22 09:44 45.46924 -129.85119 30095 ft 472 kts 319°
2026-04-22 09:45 45.51561 -129.91748 30115 ft 472 kts 319°
2026-04-22 09:45 45.56195 -129.98395 30103 ft 473 kts 319°
2026-04-22 09:46 45.60842 -130.05079 30110 ft 474 kts 319°
2026-04-22 09:46 45.65476 -130.11763 30099 ft 473 kts 319°
2026-04-22 09:47 45.70102 -130.18443 30099 ft 472 kts 319°
2026-04-22 09:47 45.74713 -130.25118 30113 ft 472 kts 318°
2026-04-22 09:48 45.79326 -130.31815 30099 ft 471 kts 318°
2026-04-22 09:48 45.83896 -130.38467 30098 ft 471 kts 318°
2026-04-22 09:49 45.88492 -130.45175 30100 ft 471 kts 318°
2026-04-22 09:49 45.93083 -130.51891 30109 ft 471 kts 318°
2026-04-22 09:50 45.97665 -130.58614 30098 ft 471 kts 318°
2026-04-22 09:50 46.02239 -130.65342 30097 ft 470 kts 317°
2026-04-22 09:51 46.06820 -130.72091 30112 ft 472 kts 317°
2026-04-22 09:51 46.11414 -130.78875 30099 ft 474 kts 317°
2026-04-22 09:52 46.16017 -130.85696 30106 ft 475 kts 316°
2026-04-22 09:52 46.20622 -130.92539 30102 ft 476 kts 316°
2026-04-22 09:53 46.25233 -130.99409 30098 ft 475 kts 316°
2026-04-22 09:53 46.29830 -131.06269 30103 ft 474 kts 316°
2026-04-22 09:54 46.34410 -131.13127 30098 ft 473 kts 316°
2026-04-22 09:54 46.38977 -131.19980 30106 ft 472 kts 316°
2026-04-22 09:55 46.43503 -131.26780 30070 ft 472 kts 316°
2026-04-22 09:55 46.48064 -131.33649 30063 ft 472 kts 315°
2026-04-22 09:56 46.52603 -131.40528 30066 ft 471 kts 315°
2026-04-22 09:56 46.57132 -131.47404 30063 ft 470 kts 315°
2026-04-22 09:57 46.61653 -131.54278 30067 ft 470 kts 315°
2026-04-22 09:57 46.66165 -131.61155 30074 ft 470 kts 315°
2026-04-22 09:58 46.70680 -131.68047 30076 ft 471 kts 315°
2026-04-22 09:58 46.75195 -131.74968 30070 ft 471 kts 315°
2026-04-22 09:59 46.79710 -131.81902 30074 ft 471 kts 315°
2026-04-22 09:59 46.84224 -131.88856 30063 ft 472 kts 314°
2026-04-22 10:00 46.88739 -131.95828 30056 ft 472 kts 314°
2026-04-22 10:00 46.93253 -132.02816 30057 ft 473 kts 314°
2026-04-22 10:01 46.97753 -132.09800 30061 ft 471 kts 314°
2026-04-22 10:01 47.01859 -132.17264 30055 ft 471 kts 303°
2026-04-22 10:02 47.05361 -132.25381 30061 ft 471 kts 303°
2026-04-22 10:02 47.08840 -132.33435 30065 ft 470 kts 303°
2026-04-22 10:03 47.12355 -132.41528 30065 ft 470 kts 303°
2026-04-22 10:03 47.15871 -132.49615 30127 ft 469 kts 303°
2026-04-22 10:04 47.19379 -132.57698 30149 ft 469 kts 303°
2026-04-22 10:04 47.22884 -132.65803 30158 ft 470 kts 303°
2026-04-22 10:05 47.26382 -132.73921 30160 ft 471 kts 303°
2026-04-22 10:05 47.29889 -132.82081 30156 ft 471 kts 303°
2026-04-22 10:06 47.33387 -132.90242 30156 ft 471 kts 303°
2026-04-22 10:06 47.36875 -132.98408 30149 ft 470 kts 302°
2026-04-22 10:07 47.40349 -133.06561 30146 ft 469 kts 302°
2026-04-22 10:07 47.43813 -133.14721 30148 ft 469 kts 302°
2026-04-22 10:08 47.47265 -133.22878 30148 ft 468 kts 302°
2026-04-22 10:08 47.50707 -133.31030 30147 ft 467 kts 302°
2026-04-22 10:09 47.54137 -133.39183 30147 ft 466 kts 302°
2026-04-22 10:09 47.57558 -133.47334 30147 ft 466 kts 302°
2026-04-22 10:10 47.60969 -133.55488 30150 ft 465 kts 302°
2026-04-22 10:10 47.64349 -133.63594 30160 ft 465 kts 302°
2026-04-22 10:11 47.67744 -133.71754 30156 ft 465 kts 302°
2026-04-22 10:11 47.71138 -133.79936 30162 ft 466 kts 302°
2026-04-22 10:12 47.74524 -133.88132 30157 ft 465 kts 302°
2026-04-22 10:12 47.77899 -133.96325 30166 ft 464 kts 301°
2026-04-22 10:13 47.81266 -134.04518 30168 ft 464 kts 301°
2026-04-22 10:13 47.84625 -134.12715 30175 ft 463 kts 301°
2026-04-22 10:14 47.87974 -134.20919 30176 ft 464 kts 301°
2026-04-22 10:14 47.91322 -134.29137 30175 ft 464 kts 301°
2026-04-22 10:15 47.94667 -134.37376 30176 ft 465 kts 301°
2026-04-22 10:15 47.98004 -134.45623 30175 ft 465 kts 301°
2026-04-22 10:16 48.01340 -134.53895 30175 ft 465 kts 301°
2026-04-22 10:16 48.04671 -134.62182 30184 ft 465 kts 301°
2026-04-22 10:17 48.07979 -134.70432 30184 ft 466 kts 301°
2026-04-22 10:17 48.11309 -134.78761 30185 ft 467 kts 301°
2026-04-22 10:18 48.14637 -134.87111 30185 ft 467 kts 301°
2026-04-22 10:18 48.17962 -134.95478 30183 ft 467 kts 301°
2026-04-22 10:19 48.21279 -135.03857 30184 ft 468 kts 301°
2026-04-22 10:19 48.24591 -135.12250 30185 ft 467 kts 301°
2026-04-22 10:20 48.27898 -135.20649 30185 ft 467 kts 301°
2026-04-22 10:20 48.31192 -135.29049 30190 ft 467 kts 301°
2026-04-22 10:21 48.34488 -135.37476 30196 ft 467 kts 301°
2026-04-22 10:21 48.37773 -135.45902 30186 ft 468 kts 301°
2026-04-22 10:22 48.41057 -135.54354 30184 ft 468 kts 301°
2026-04-22 10:22 48.44331 -135.62810 30184 ft 467 kts 301°
2026-04-22 10:23 48.47578 -135.71223 30185 ft 467 kts 301°
2026-04-22 10:23 48.50844 -135.79703 30180 ft 468 kts 301°
2026-04-22 10:24 48.54103 -135.88197 30174 ft 468 kts 301°
2026-04-22 10:24 48.57352 -135.96692 30175 ft 468 kts 301°
2026-04-22 10:25 48.60598 -136.05206 30175 ft 468 kts 301°
2026-04-22 10:25 48.63839 -136.13735 30176 ft 468 kts 301°
2026-04-22 10:26 48.67073 -136.22275 30175 ft 468 kts 301°
2026-04-22 10:26 48.70301 -136.30831 30175 ft 468 kts 301°
2026-04-22 10:27 48.73529 -136.39401 30174 ft 468 kts 301°
2026-04-22 10:27 48.76750 -136.47992 30176 ft 469 kts 301°
2026-04-22 10:28 48.79950 -136.56550 30176 ft 470 kts 301°
2026-04-22 10:28 48.83166 -136.65179 30185 ft 470 kts 301°
2026-04-22 10:29 48.86383 -136.73843 30186 ft 471 kts 301°
2026-04-22 10:29 48.89598 -136.82528 30184 ft 472 kts 301°
2026-04-22 10:30 48.92810 -136.91232 30185 ft 472 kts 301°
2026-04-22 10:30 48.96016 -136.99954 30183 ft 472 kts 300°
2026-04-22 10:31 48.99216 -137.08688 30185 ft 472 kts 300°
2026-04-22 10:31 49.01872 -137.15957 30184 ft 472 kts 300°
2026-04-22 10:32 49.05059 -137.24703 30185 ft 473 kts 300°
2026-04-22 10:32 49.08243 -137.33476 30183 ft 473 kts 300°
2026-04-22 10:33 49.11427 -137.42268 30185 ft 473 kts 300°
2026-04-22 10:33 49.14606 -137.51082 30184 ft 474 kts 300°
2026-04-22 10:34 49.17780 -137.59920 30185 ft 475 kts 300°
2026-04-22 10:34 49.20953 -137.68781 30184 ft 476 kts 300°
2026-04-22 10:35 49.24127 -137.77669 30185 ft 477 kts 300°
2026-04-22 10:35 49.27297 -137.86584 30193 ft 477 kts 300°
2026-04-22 10:36 49.30466 -137.95526 30194 ft 478 kts 300°
2026-04-22 10:36 49.33635 -138.04496 30194 ft 479 kts 300°
2026-04-22 10:37 49.38387 -138.18004 30195 ft 480 kts 300°
2026-04-22 10:38 49.41549 -138.27037 30193 ft 481 kts 300°
2026-04-22 10:38 49.44709 -138.36092 30194 ft 481 kts 300°
2026-04-22 10:39 49.47845 -138.45100 30193 ft 481 kts 300°
2026-04-22 10:39 49.50988 -138.54180 30194 ft 481 kts 300°
2026-04-22 10:40 49.54129 -138.63281 30193 ft 481 kts 300°
2026-04-22 10:40 49.57262 -138.72392 30194 ft 481 kts 300°
2026-04-22 10:41 49.60390 -138.81515 30193 ft 481 kts 300°
2026-04-22 10:41 49.63509 -138.90645 30194 ft 481 kts 300°
2026-04-22 10:42 49.66619 -138.99784 30195 ft 481 kts 300°
2026-04-22 10:42 49.69723 -139.08938 30193 ft 481 kts 299°
2026-04-22 10:43 49.72819 -139.18103 30192 ft 482 kts 299°
2026-04-22 10:43 49.75919 -139.27307 30194 ft 483 kts 299°
2026-04-22 10:44 49.79013 -139.36526 30195 ft 484 kts 299°
2026-04-22 10:44 49.82111 -139.45796 30194 ft 485 kts 299°
2026-04-22 10:45 49.85212 -139.55105 30194 ft 487 kts 299°
2026-04-22 10:45 49.88314 -139.64453 30195 ft 488 kts 299°
2026-04-22 10:46 49.91415 -139.73842 30193 ft 490 kts 299°
2026-04-22 10:46 49.94519 -139.83264 30194 ft 491 kts 299°
2026-04-22 10:47 49.97622 -139.92721 30195 ft 492 kts 299°
2026-04-22 10:47 50.00649 -140.02193 30192 ft 493 kts 296°
2026-04-22 10:48 50.03208 -140.12106 30188 ft 494 kts 293°
2026-04-22 10:48 50.05625 -140.22104 30194 ft 493 kts 292°
2026-04-22 10:49 50.08061 -140.32083 30195 ft 493 kts 293°
2026-04-22 10:49 50.10523 -140.42042 30193 ft 492 kts 293°
2026-04-22 10:50 50.12990 -140.51984 30200 ft 491 kts 293°
2026-04-22 10:50 50.15448 -140.61922 30204 ft 491 kts 293°
2026-04-22 10:51 50.17890 -140.71870 30203 ft 491 kts 292°
2026-04-22 10:51 50.20322 -140.81829 30203 ft 491 kts 292°
2026-04-22 10:52 50.22733 -140.91742 30202 ft 491 kts 292°
2026-04-22 10:52 50.25151 -141.01724 30203 ft 491 kts 292°
2026-04-22 10:53 50.27558 -141.11714 30203 ft 492 kts 292°
2026-04-22 10:53 50.29965 -141.21750 30204 ft 493 kts 292°
2026-04-22 10:54 50.32364 -141.31791 30204 ft 494 kts 292°
2026-04-22 10:54 50.34762 -141.41875 30202 ft 494 kts 292°
2026-04-22 10:55 50.37152 -141.51981 30204 ft 495 kts 292°
2026-04-22 10:55 50.39538 -141.62108 30202 ft 496 kts 292°
2026-04-22 10:56 50.41916 -141.72257 30203 ft 496 kts 292°
2026-04-22 10:56 50.44289 -141.82426 30203 ft 497 kts 291°
2026-04-22 10:57 50.46652 -141.92604 30210 ft 497 kts 291°
2026-04-22 10:57 50.49013 -142.02823 30201 ft 498 kts 291°
2026-04-22 10:58 50.51363 -142.13041 30187 ft 498 kts 291°
2026-04-22 10:58 50.53707 -142.23274 30183 ft 497 kts 291°
2026-04-22 10:59 50.56040 -142.33526 30187 ft 497 kts 291°
2026-04-22 10:59 50.58360 -142.43769 30182 ft 497 kts 291°
2026-04-22 11:00 50.60675 -142.54015 30186 ft 496 kts 291°
2026-04-22 11:00 50.62974 -142.64260 30183 ft 496 kts 291°
2026-04-22 11:01 50.65249 -142.74443 30186 ft 496 kts 290°
2026-04-22 11:01 50.67528 -142.84696 30183 ft 495 kts 290°
2026-04-22 11:02 50.69794 -142.94950 30183 ft 495 kts 290°
2026-04-22 11:02 50.72050 -143.05196 30185 ft 495 kts 290°
2026-04-22 11:03 50.74303 -143.15478 30185 ft 495 kts 290°
2026-04-22 11:03 50.76542 -143.25754 30191 ft 495 kts 290°
2026-04-22 11:04 50.78780 -143.36061 30196 ft 496 kts 290°
2026-04-22 11:04 50.81007 -143.46395 30193 ft 497 kts 290°
2026-04-22 11:05 50.83229 -143.56742 30195 ft 497 kts 290°
2026-04-22 11:05 50.85441 -143.67108 30194 ft 497 kts 290°
2026-04-22 11:06 50.87648 -143.77488 30193 ft 497 kts 290°
2026-04-22 11:06 50.89842 -143.87866 30194 ft 497 kts 289°
2026-04-22 11:07 50.92027 -143.98262 30193 ft 497 kts 289°
2026-04-22 11:07 50.94204 -144.08659 30192 ft 497 kts 289°
2026-04-22 11:08 50.96370 -144.19057 30194 ft 496 kts 289°
2026-04-22 11:08 50.98508 -144.29393 30194 ft 496 kts 289°
2026-04-22 11:09 51.00651 -144.39803 30193 ft 496 kts 289°
2026-04-22 11:09 51.02786 -144.50217 30194 ft 496 kts 289°
2026-04-22 11:10 51.04908 -144.60624 30194 ft 495 kts 289°
2026-04-22 11:10 51.07022 -144.71048 30193 ft 495 kts 289°
2026-04-22 11:11 51.09126 -144.81477 30194 ft 495 kts 289°
2026-04-22 11:11 51.11220 -144.91913 30200 ft 495 kts 288°
2026-04-22 11:12 51.13304 -145.02355 30206 ft 495 kts 288°
2026-04-22 11:12 51.15378 -145.12802 30202 ft 495 kts 288°
2026-04-22 11:13 51.17440 -145.23261 30203 ft 495 kts 288°
2026-04-22 11:13 51.19496 -145.33730 30206 ft 495 kts 288°
2026-04-22 11:14 51.21543 -145.44206 30202 ft 495 kts 288°
2026-04-22 11:14 51.23579 -145.54688 30203 ft 494 kts 288°
2026-04-22 11:15 51.25603 -145.65177 30195 ft 494 kts 288°
2026-04-22 11:15 51.27619 -145.75672 30193 ft 494 kts 287°
2026-04-22 11:16 51.29611 -145.86091 30193 ft 493 kts 287°
2026-04-22 11:16 51.31604 -145.96579 30193 ft 493 kts 287°
2026-04-22 11:17 51.33587 -146.07065 30193 ft 493 kts 287°
2026-04-22 11:17 51.35557 -146.17555 30205 ft 492 kts 287°
2026-04-22 11:18 51.37513 -146.28050 30203 ft 492 kts 287°
2026-04-22 11:18 51.39465 -146.38560 30199 ft 493 kts 287°
2026-04-22 11:19 51.41412 -146.49091 30163 ft 494 kts 287°
2026-04-22 11:19 51.43353 -146.59660 30154 ft 495 kts 287°
2026-04-22 11:20 51.44962 -146.68462 30155 ft 495 kts 287°
2026-04-22 11:20 51.46889 -146.79063 30168 ft 495 kts 286°
2026-04-22 11:21 51.48804 -146.89670 30161 ft 496 kts 286°
2026-04-22 11:21 51.50714 -147.00307 30161 ft 496 kts 286°
2026-04-22 11:22 51.52620 -147.10977 30164 ft 497 kts 286°
2026-04-22 11:22 51.54514 -147.21656 30167 ft 497 kts 286°
2026-04-22 11:23 51.56401 -147.32346 30167 ft 497 kts 285°
2026-04-22 11:23 51.58278 -147.43044 30161 ft 497 kts 285°
2026-04-22 11:24 51.60142 -147.53741 30166 ft 497 kts 285°
2026-04-22 11:24 51.61995 -147.64431 30170 ft 496 kts 285°
2026-04-22 11:25 51.63839 -147.75131 30165 ft 496 kts 285°
2026-04-22 11:25 51.65671 -147.85840 30168 ft 495 kts 285°
2026-04-22 11:26 51.67491 -147.96542 30163 ft 495 kts 285°
2026-04-22 11:26 51.69302 -148.07252 30167 ft 495 kts 285°
2026-04-22 11:27 51.71102 -148.17962 30164 ft 495 kts 285°
2026-04-22 11:27 51.72879 -148.28604 30166 ft 495 kts 284°
2026-04-22 11:28 51.74660 -148.39330 30170 ft 495 kts 284°
2026-04-22 11:28 51.76428 -148.50061 30164 ft 495 kts 284°
2026-04-22 11:29 51.78189 -148.60802 30165 ft 495 kts 284°
2026-04-22 11:29 51.79940 -148.71543 30168 ft 495 kts 284°
2026-04-22 11:30 51.81682 -148.82318 30164 ft 496 kts 284°
2026-04-22 11:30 51.83417 -148.93107 30166 ft 496 kts 284°
2026-04-22 11:31 51.85145 -149.03907 30165 ft 496 kts 284°
2026-04-22 11:31 51.86859 -149.14729 30169 ft 497 kts 283°
2026-04-22 11:32 51.88568 -149.25568 30162 ft 497 kts 283°
2026-04-22 11:32 51.90268 -149.36419 30168 ft 497 kts 283°
2026-04-22 11:33 51.91959 -149.47286 30164 ft 498 kts 283°
2026-04-22 11:33 51.93641 -149.58168 30166 ft 498 kts 283°
2026-04-22 11:34 51.95315 -149.69062 30160 ft 498 kts 283°
2026-04-22 11:34 51.96969 -149.79927 30516 ft 499 kts 283°
2026-04-22 11:34 51.97796 -149.85373 30841 ft 496 kts 283°
2026-04-22 11:35 51.98615 -149.90790 31171 ft 493 kts 283°
2026-04-22 11:35 51.99428 -149.96184 31463 ft 491 kts 283°
2026-04-22 11:35 52.00235 -150.01566 31721 ft 490 kts 283°
2026-04-22 11:35 52.01025 -150.06945 31962 ft 490 kts 282°
2026-04-22 11:36 52.01802 -150.12337 32072 ft 492 kts 282°
2026-04-22 11:36 52.03344 -150.23144 32142 ft 490 kts 282°
2026-04-22 11:37 52.04871 -150.33891 32142 ft 487 kts 282°
2026-04-22 11:37 52.06385 -150.44595 32146 ft 485 kts 282°
2026-04-22 11:38 52.07885 -150.55270 32147 ft 485 kts 282°
2026-04-22 11:38 52.10119 -150.71294 32151 ft 484 kts 282°
2026-04-22 11:39 52.11595 -150.81980 32156 ft 484 kts 282°
2026-04-22 11:39 52.13059 -150.92668 32144 ft 484 kts 282°
2026-04-22 11:40 52.14514 -151.03356 32140 ft 483 kts 282°
2026-04-22 11:40 52.15957 -151.14042 32142 ft 483 kts 282°
2026-04-22 11:41 52.17390 -151.24722 32138 ft 482 kts 282°
2026-04-22 11:41 52.18810 -151.35395 32141 ft 482 kts 281°
2026-04-22 11:42 52.20219 -151.46060 32140 ft 481 kts 281°
2026-04-22 11:42 52.21615 -151.56708 32131 ft 481 kts 281°
2026-04-22 11:43 52.23006 -151.67384 32120 ft 481 kts 281°
2026-04-22 11:43 52.24380 -151.78037 32124 ft 480 kts 281°
2026-04-22 11:44 52.25749 -151.88705 32123 ft 480 kts 281°
2026-04-22 11:44 52.27102 -151.99322 32124 ft 480 kts 281°
2026-04-22 11:45 52.28452 -152.10009 32120 ft 480 kts 281°
2026-04-22 11:45 52.29790 -152.20701 32119 ft 480 kts 281°
2026-04-22 11:46 52.31119 -152.31393 32124 ft 480 kts 281°
2026-04-22 11:46 52.32437 -152.42086 32115 ft 480 kts 281°
2026-04-22 11:47 52.33746 -152.52770 32119 ft 479 kts 281°
2026-04-22 11:47 52.35040 -152.63445 32136 ft 478 kts 281°
2026-04-22 11:48 52.36314 -152.74037 32142 ft 477 kts 281°
2026-04-22 11:48 52.37585 -152.84670 32135 ft 476 kts 281°
2026-04-22 11:49 52.38844 -152.95296 32138 ft 475 kts 281°
2026-04-22 11:49 52.40092 -153.05908 32140 ft 474 kts 281°
2026-04-22 11:50 52.41325 -153.16499 32136 ft 473 kts 281°
2026-04-22 11:50 52.42547 -153.27068 32139 ft 472 kts 281°
2026-04-22 11:51 52.43757 -153.37617 32144 ft 470 kts 281°
2026-04-22 11:51 52.44954 -153.48150 32141 ft 469 kts 281°
2026-04-22 11:52 52.46139 -153.58667 32140 ft 469 kts 281°
2026-04-22 11:52 52.47311 -153.69166 32137 ft 467 kts 281°
2026-04-22 11:53 52.48467 -153.79584 32142 ft 467 kts 281°
2026-04-22 11:53 52.49621 -153.90074 32143 ft 467 kts 281°
2026-04-22 11:54 52.50768 -154.00576 32139 ft 467 kts 281°
2026-04-22 11:54 52.51903 -154.11091 32137 ft 468 kts 280°
2026-04-22 11:55 52.53029 -154.21606 32139 ft 468 kts 280°
2026-04-22 11:55 52.54149 -154.32154 32061 ft 470 kts 280°
2026-04-22 11:56 52.55262 -154.42737 32007 ft 470 kts 280°
2026-04-22 11:56 52.56364 -154.53320 31996 ft 469 kts 279°
2026-04-22 11:57 52.57453 -154.63862 31999 ft 468 kts 279°
2026-04-22 11:57 52.58534 -154.74407 31999 ft 467 kts 279°
2026-04-22 11:58 52.59602 -154.84944 32002 ft 467 kts 279°
2026-04-22 11:58 52.60652 -154.95404 31998 ft 466 kts 279°
2026-04-22 11:59 52.61701 -155.05937 32001 ft 467 kts 278°
2026-04-22 11:59 52.62744 -155.16475 31992 ft 467 kts 278°
2026-04-22 12:00 52.63775 -155.27039 31993 ft 468 kts 278°
2026-04-22 12:00 52.64799 -155.37629 31997 ft 468 kts 278°
2026-04-22 12:01 52.65813 -155.48209 31994 ft 468 kts 278°
2026-04-22 12:01 52.66818 -155.58802 31993 ft 468 kts 277°
2026-04-22 12:02 52.67813 -155.69394 31993 ft 468 kts 277°
2026-04-22 12:02 52.68799 -155.79983 31989 ft 467 kts 277°
2026-04-22 12:03 52.69776 -155.90574 31985 ft 467 kts 277°
2026-04-22 12:03 52.70738 -156.01157 31982 ft 467 kts 277°
2026-04-22 12:04 52.71694 -156.11751 31979 ft 467 kts 276°
2026-04-22 12:04 52.72642 -156.22357 31980 ft 467 kts 276°
2026-04-22 12:05 52.73573 -156.32883 31983 ft 467 kts 276°
2026-04-22 12:05 52.74499 -156.43476 31982 ft 467 kts 276°
2026-04-22 12:06 52.75417 -156.54086 31979 ft 467 kts 276°
2026-04-22 12:06 52.76326 -156.64706 31979 ft 467 kts 276°
2026-04-22 12:07 52.77225 -156.75340 31983 ft 468 kts 275°
2026-04-22 12:07 52.78117 -156.85992 31976 ft 468 kts 275°
2026-04-22 12:08 52.78851 -156.94842 31972 ft 468 kts 275°
2026-04-22 12:08 52.79726 -157.05507 31972 ft 468 kts 275°
2026-04-22 12:09 52.80593 -157.16183 31966 ft 469 kts 275°
2026-04-22 12:09 52.81449 -157.26872 31962 ft 469 kts 274°
2026-04-22 12:10 52.82295 -157.37566 31963 ft 469 kts 274°
2026-04-22 12:10 52.83134 -157.48268 31959 ft 469 kts 274°
2026-04-22 12:11 52.83957 -157.58896 31952 ft 470 kts 274°
2026-04-22 12:11 52.84777 -157.69630 31899 ft 471 kts 274°
2026-04-22 12:12 52.85589 -157.80374 31886 ft 470 kts 274°
2026-04-22 12:12 52.86391 -157.91115 31874 ft 470 kts 273°
2026-04-22 12:13 52.87184 -158.01882 31855 ft 472 kts 271°
2026-04-22 12:13 52.87971 -158.12712 31863 ft 475 kts 270°
2026-04-22 12:14 52.88752 -158.23615 31869 ft 478 kts 270°
2026-04-22 12:14 52.89529 -158.34573 31868 ft 480 kts 270°
2026-04-22 12:15 52.90298 -158.45551 31855 ft 480 kts 270°
2026-04-22 12:15 52.91057 -158.56541 31855 ft 480 kts 270°
2026-04-22 12:16 52.91802 -158.67506 31855 ft 478 kts 270°
2026-04-22 12:16 52.92538 -158.78443 31821 ft 477 kts 269°
2026-04-22 12:17 52.93256 -158.89303 31807 ft 477 kts 269°
2026-04-22 12:17 52.93968 -159.00215 31791 ft 476 kts 269°
2026-04-22 12:18 52.94667 -159.11112 31796 ft 476 kts 269°
2026-04-22 12:18 52.95358 -159.22036 31799 ft 476 kts 269°
2026-04-22 12:19 52.96040 -159.32969 31783 ft 477 kts 269°
2026-04-22 12:19 52.96713 -159.43913 31793 ft 477 kts 268°
2026-04-22 12:20 52.97376 -159.54868 31785 ft 477 kts 268°
2026-04-22 12:20 52.98029 -159.65828 31785 ft 477 kts 268°
2026-04-22 12:21 52.98671 -159.76783 31793 ft 477 kts 268°
2026-04-22 12:21 52.99306 -159.87762 31782 ft 478 kts 268°
2026-04-22 12:22 52.99945 -159.98731 31784 ft 478 kts 270°
2026-04-22 12:22 53.01299 -160.09661 31791 ft 486 kts 275°
2026-04-22 12:23 53.02918 -160.20586 31795 ft 488 kts 275°
2026-04-22 12:23 53.04520 -160.31565 31783 ft 489 kts 275°
2026-04-22 12:24 53.06086 -160.42567 31763 ft 490 kts 275°
2026-04-22 12:24 53.07626 -160.53534 31752 ft 490 kts 275°
2026-04-22 12:25 53.09166 -160.64601 31703 ft 491 kts 274°
2026-04-22 12:25 53.10704 -160.75683 31705 ft 491 kts 274°
2026-04-22 12:26 53.12222 -160.86748 31698 ft 490 kts 274°
2026-04-22 12:26 53.13731 -160.97820 31703 ft 490 kts 274°
2026-04-22 12:27 53.15230 -161.08891 31702 ft 490 kts 274°
2026-04-22 12:27 53.16719 -161.19982 31702 ft 490 kts 273°
2026-04-22 12:28 53.18199 -161.31077 31694 ft 492 kts 272°
2026-04-22 12:28 53.19671 -161.42235 31709 ft 495 kts 271°
2026-04-22 12:29 53.21146 -161.53502 31712 ft 499 kts 271°
2026-04-22 12:29 53.22625 -161.64859 31709 ft 502 kts 271°
2026-04-22 12:30 53.24837 -161.81987 31698 ft 504 kts 271°
2026-04-22 12:31 53.26301 -161.93416 31703 ft 503 kts 271°
2026-04-22 12:31 53.27743 -162.04819 31700 ft 502 kts 270°
2026-04-22 12:32 53.29175 -162.16223 31700 ft 501 kts 270°
2026-04-22 12:32 53.31297 -162.33319 31700 ft 500 kts 270°
2026-04-22 12:33 53.32700 -162.44733 31663 ft 501 kts 270°
2026-04-22 12:33 53.34092 -162.56148 31654 ft 501 kts 270°
2026-04-22 12:34 53.35464 -162.67497 31650 ft 501 kts 270°
2026-04-22 12:34 53.36844 -162.79023 31651 ft 502 kts 270°
2026-04-22 12:35 53.38198 -162.90428 31626 ft 504 kts 269°
2026-04-22 12:35 53.39556 -163.01972 31581 ft 505 kts 269°
2026-04-22 12:36 53.40906 -163.13524 31566 ft 505 kts 269°
2026-04-22 12:36 53.42243 -163.25069 31568 ft 504 kts 269°
2026-04-22 12:37 53.43567 -163.36606 31567 ft 504 kts 269°
2026-04-22 12:37 53.44878 -163.48141 31557 ft 503 kts 269°
2026-04-22 12:38 53.46176 -163.59684 31562 ft 503 kts 269°
2026-04-22 12:38 53.47463 -163.71226 31562 ft 504 kts 268°
2026-04-22 12:39 53.49381 -163.88604 31561 ft 505 kts 268°
2026-04-22 12:40 53.50645 -164.00235 31562 ft 507 kts 268°
2026-04-22 12:40 53.51905 -164.11895 31554 ft 507 kts 268°
2026-04-22 12:41 53.53154 -164.23568 31552 ft 507 kts 268°
2026-04-22 12:41 53.54382 -164.35170 31551 ft 507 kts 268°
2026-04-22 12:42 53.55607 -164.46851 31554 ft 507 kts 268°
2026-04-22 12:42 53.56819 -164.58519 31547 ft 505 kts 268°
2026-04-22 12:43 53.58014 -164.70143 31540 ft 504 kts 268°
2026-04-22 12:43 53.59196 -164.81744 31545 ft 502 kts 268°
2026-04-22 12:44 53.60361 -164.93309 31539 ft 500 kts 268°
2026-04-22 12:44 53.61512 -165.04854 31541 ft 499 kts 268°
2026-04-22 12:45 53.62648 -165.16388 31545 ft 499 kts 268°
2026-04-22 12:45 53.63774 -165.27909 31536 ft 499 kts 268°
2026-04-22 12:46 53.64888 -165.39452 31530 ft 499 kts 268°
2026-04-22 12:46 53.65996 -165.51029 31540 ft 500 kts 268°
2026-04-22 12:47 53.67095 -165.62629 31535 ft 502 kts 268°
2026-04-22 12:47 53.68182 -165.74264 31536 ft 502 kts 268°
2026-04-22 12:48 53.69257 -165.85919 31533 ft 503 kts 268°
2026-04-22 12:48 53.70318 -165.97506 31535 ft 503 kts 268°
2026-04-22 12:49 53.71377 -166.09180 31537 ft 503 kts 268°
2026-04-22 12:49 53.72426 -166.20835 31531 ft 502 kts 268°
2026-04-22 12:50 53.73459 -166.32490 31533 ft 501 kts 268°
2026-04-22 12:50 53.74482 -166.44136 31535 ft 501 kts 268°
2026-04-22 12:51 53.75483 -166.55747 31542 ft 499 kts 268°
2026-04-22 12:51 53.76468 -166.67352 31541 ft 499 kts 269°
2026-04-22 12:52 53.77450 -166.78954 31527 ft 498 kts 269°
2026-04-22 12:52 53.78420 -166.90527 31533 ft 498 kts 269°
2026-04-22 12:53 53.79378 -167.02113 31538 ft 497 kts 269°
2026-04-22 12:53 53.80322 -167.13706 31530 ft 496 kts 269°
2026-04-22 12:54 53.81250 -167.25250 31528 ft 495 kts 270°
2026-04-22 12:54 53.82161 -167.36721 31527 ft 495 kts 270°
2026-04-22 12:55 53.82922 -167.46400 31524 ft 495 kts 270°
2026-04-22 12:55 53.83965 -167.59830 31526 ft 495 kts 270°
2026-04-22 12:56 53.84850 -167.71413 31516 ft 496 kts 270°
2026-04-22 12:56 53.85724 -167.82998 31514 ft 497 kts 270°
2026-04-22 12:57 53.86591 -167.94617 31509 ft 497 kts 270°
2026-04-22 12:57 53.87448 -168.06251 31506 ft 498 kts 270°
2026-04-22 12:58 53.88292 -168.17893 31498 ft 498 kts 270°
2026-04-22 12:58 53.88986 -168.27577 31495 ft 498 kts 270°
2026-04-22 12:59 53.89808 -168.39211 31489 ft 497 kts 270°
2026-04-22 12:59 53.90620 -168.50851 31482 ft 497 kts 270°
2026-04-22 13:00 53.91420 -168.62480 31477 ft 496 kts 270°
2026-04-22 13:00 53.92205 -168.74093 31470 ft 495 kts 270°
2026-04-22 13:01 53.92981 -168.85685 31474 ft 494 kts 270°
2026-04-22 13:01 53.93742 -168.97256 31469 ft 493 kts 270°
2026-04-22 13:02 53.94491 -169.08809 31461 ft 492 kts 270°
2026-04-22 13:02 53.95225 -169.20352 31459 ft 492 kts 270°
2026-04-22 13:03 53.95948 -169.31879 31454 ft 491 kts 270°
2026-04-22 13:03 53.96662 -169.43419 31448 ft 491 kts 270°
2026-04-22 13:04 53.97361 -169.54890 31435 ft 491 kts 270°
2026-04-22 13:04 53.98054 -169.66444 31426 ft 492 kts 270°
2026-04-22 13:05 53.98734 -169.78008 31399 ft 492 kts 270°
2026-04-22 13:05 53.99407 -169.89597 31391 ft 493 kts 270°
2026-04-22 13:06 54.00067 -170.01184 31382 ft 493 kts 270°
2026-04-22 13:06 54.00584 -170.12796 31376 ft 492 kts 268°
2026-04-22 13:07 54.01017 -170.24410 31369 ft 492 kts 268°
2026-04-22 13:07 54.01447 -170.36021 31379 ft 492 kts 268°
2026-04-22 13:08 54.01882 -170.47634 31376 ft 492 kts 268°
2026-04-22 13:08 54.02314 -170.59254 31371 ft 492 kts 268°
2026-04-22 13:09 54.02736 -170.70887 31364 ft 493 kts 268°
2026-04-22 13:09 54.03146 -170.82534 31353 ft 493 kts 268°
2026-04-22 13:10 54.03545 -170.94164 31344 ft 493 kts 268°
2026-04-22 13:10 54.03933 -171.05801 31344 ft 492 kts 268°
2026-04-22 13:11 54.04308 -171.17427 31335 ft 492 kts 268°
2026-04-22 13:11 54.04670 -171.29043 31328 ft 491 kts 268°
2026-04-22 13:12 54.05023 -171.40647 31318 ft 491 kts 268°
2026-04-22 13:12 54.05362 -171.52240 31303 ft 490 kts 268°
2026-04-22 13:13 54.05689 -171.63741 31299 ft 489 kts 268°
2026-04-22 13:13 54.06003 -171.75299 31286 ft 488 kts 268°
2026-04-22 13:14 54.06312 -171.86856 31236 ft 489 kts 268°
2026-04-22 13:14 54.06606 -171.98417 31201 ft 488 kts 268°
2026-04-22 13:15 54.06891 -172.09949 31186 ft 487 kts 268°
2026-04-22 13:15 54.07162 -172.21464 31183 ft 486 kts 268°
2026-04-22 13:16 54.07422 -172.32968 31175 ft 486 kts 268°
2026-04-22 13:16 54.07671 -172.44466 31174 ft 486 kts 268°
2026-04-22 13:17 54.07910 -172.55976 31165 ft 487 kts 268°
2026-04-22 13:17 54.08136 -172.67519 31169 ft 488 kts 268°
2026-04-22 13:18 54.08354 -172.79090 31149 ft 489 kts 268°
2026-04-22 13:18 54.08560 -172.90663 31149 ft 490 kts 268°
2026-04-22 13:19 54.08756 -173.02276 31144 ft 491 kts 268°
2026-04-22 13:19 54.08943 -173.13901 31133 ft 491 kts 268°
2026-04-22 13:20 54.09114 -173.25452 31136 ft 491 kts 268°
2026-04-22 13:20 54.09277 -173.37079 31131 ft 491 kts 268°
2026-04-22 13:21 54.09430 -173.48703 31097 ft 491 kts 268°
2026-04-22 13:21 54.09570 -173.60309 31091 ft 489 kts 268°
2026-04-22 13:22 54.09700 -173.71871 31086 ft 488 kts 268°
2026-04-22 13:22 54.09816 -173.83405 31092 ft 486 kts 268°
2026-04-22 13:23 54.09922 -173.94913 31090 ft 485 kts 268°
2026-04-22 13:23 54.10017 -174.06405 31091 ft 485 kts 268°
2026-04-22 13:24 54.10099 -174.17891 31093 ft 485 kts 268°
2026-04-22 13:24 54.10171 -174.29395 31073 ft 486 kts 267°
2026-04-22 13:25 54.10233 -174.40937 31047 ft 487 kts 267°
2026-04-22 13:25 54.10284 -174.52504 31043 ft 488 kts 267°
2026-04-22 13:26 54.10327 -174.64075 31037 ft 489 kts 267°
2026-04-22 13:26 54.10355 -174.75654 31034 ft 489 kts 267°
2026-04-22 13:27 54.10372 -174.87260 31035 ft 490 kts 267°
2026-04-22 13:27 54.10378 -174.98807 31034 ft 491 kts 267°
2026-04-22 13:28 54.10371 -175.10453 31036 ft 492 kts 267°
2026-04-22 13:28 54.10358 -175.22117 31033 ft 492 kts 267°
2026-04-22 13:29 54.10333 -175.33786 31027 ft 492 kts 267°
2026-04-22 13:29 54.10294 -175.45437 31024 ft 492 kts 267°
2026-04-22 13:30 54.10245 -175.57093 31023 ft 491 kts 267°
2026-04-22 13:30 54.10184 -175.68711 31026 ft 490 kts 267°
2026-04-22 13:31 54.10112 -175.80296 30992 ft 490 kts 267°
2026-04-22 13:31 54.10027 -175.91835 30964 ft 489 kts 267°
2026-04-22 13:32 54.09934 -176.03479 30956 ft 488 kts 266°
2026-04-22 13:32 54.09833 -176.14959 30956 ft 487 kts 266°
2026-04-22 13:33 54.09716 -176.26501 30950 ft 487 kts 266°
2026-04-22 13:33 54.09589 -176.38060 30948 ft 488 kts 266°
2026-04-22 13:34 54.09451 -176.49607 30948 ft 489 kts 266°
2026-04-22 13:34 54.09302 -176.61211 30949 ft 490 kts 266°
2026-04-22 13:35 54.09139 -176.72823 30939 ft 492 kts 266°
2026-04-22 13:35 54.08965 -176.84501 30909 ft 494 kts 266°
2026-04-22 13:36 54.08784 -176.96133 30900 ft 495 kts 266°
2026-04-22 13:36 54.08588 -177.07859 30900 ft 495 kts 266°
2026-04-22 13:37 54.08379 -177.19674 30901 ft 496 kts 266°
2026-04-22 13:37 54.08160 -177.31339 30901 ft 496 kts 267°
2026-04-22 13:38 54.07928 -177.43084 30898 ft 496 kts 267°
2026-04-22 13:38 54.07559 -177.60666 30881 ft 495 kts 267°
2026-04-22 13:39 54.07301 -177.72374 30880 ft 494 kts 267°
2026-04-22 13:39 54.07034 -177.84067 30885 ft 494 kts 266°
2026-04-22 13:40 54.06752 -177.95744 30885 ft 493 kts 266°
2026-04-22 13:40 54.06458 -178.07408 30883 ft 493 kts 266°
2026-04-22 13:41 54.06156 -178.19076 30874 ft 493 kts 266°
2026-04-22 13:41 54.05841 -178.30716 30880 ft 493 kts 266°
2026-04-22 13:42 54.05515 -178.42377 30886 ft 494 kts 266°
2026-04-22 13:42 54.05178 -178.54054 30878 ft 495 kts 266°
2026-04-22 13:43 54.04828 -178.65757 30882 ft 496 kts 266°
2026-04-22 13:43 54.04466 -178.77488 30887 ft 497 kts 266°
2026-04-22 13:44 54.04093 -178.89179 30881 ft 499 kts 266°
2026-04-22 13:44 54.03704 -179.00984 30876 ft 500 kts 266°
2026-04-22 13:45 54.03305 -179.12816 30887 ft 501 kts 266°
2026-04-22 13:45 54.02893 -179.24667 30876 ft 502 kts 266°
2026-04-22 13:46 54.02470 -179.36531 30883 ft 503 kts 266°
2026-04-22 13:46 54.02034 -179.48398 30880 ft 503 kts 266°
2026-04-22 13:47 54.01585 -179.60251 30887 ft 502 kts 266°
2026-04-22 13:47 54.01204 -179.70089 30878 ft 501 kts 266°
2026-04-22 13:48 54.00740 -179.81901 30883 ft 500 kts 266°
2026-04-22 13:48 54.00209 -179.93686 30884 ft 500 kts 263°
2026-04-22 13:49 53.98624 179.94828 30888 ft 500 kts 252°
2026-04-22 13:49 53.95955 179.83965 30985 ft 498 kts 246°
2026-04-22 13:50 53.93123 179.73250 31103 ft 497 kts 246°
2026-04-22 13:50 53.90311 179.62542 31225 ft 497 kts 246°
2026-04-22 13:51 53.87528 179.51895 31342 ft 498 kts 247°
2026-04-22 13:51 53.84712 179.41141 31350 ft 500 kts 247°
2026-04-22 13:52 53.81876 179.30360 31354 ft 502 kts 247°
2026-04-22 13:52 53.79028 179.19585 31343 ft 501 kts 247°
2026-04-22 13:53 53.76173 179.08845 31335 ft 500 kts 247°
2026-04-22 13:53 53.73319 178.98160 31333 ft 498 kts 248°
2026-04-22 13:54 53.70464 178.87523 31335 ft 497 kts 248°
2026-04-22 13:54 53.67606 178.76915 31324 ft 496 kts 248°
2026-04-22 13:55 53.64739 178.66321 31329 ft 497 kts 248°
2026-04-22 13:55 53.61862 178.55739 31329 ft 498 kts 248°
2026-04-22 13:56 53.58979 178.45198 31318 ft 500 kts 248°
2026-04-22 13:56 53.56060 178.34565 31320 ft 501 kts 248°
2026-04-22 13:57 53.53123 178.23916 31320 ft 503 kts 248°
2026-04-22 13:57 53.50169 178.13253 31305 ft 504 kts 248°
2026-04-22 13:58 53.47201 178.02590 31309 ft 504 kts 248°
2026-04-22 13:58 53.44221 177.91934 31310 ft 504 kts 248°
2026-04-22 13:59 53.41233 177.81304 31303 ft 503 kts 248°
2026-04-22 13:59 53.38240 177.70699 31298 ft 502 kts 248°
2026-04-22 14:00 53.35245 177.60134 31303 ft 501 kts 248°
2026-04-22 14:00 53.32257 177.49634 31307 ft 499 kts 248°
2026-04-22 14:01 53.29287 177.39257 31318 ft 497 kts 248°
2026-04-22 14:01 53.26300 177.28861 31296 ft 496 kts 248°
2026-04-22 14:02 53.23311 177.18512 31316 ft 494 kts 248°
2026-04-22 14:02 53.20322 177.08191 31314 ft 494 kts 248°
2026-04-22 14:03 53.17329 176.97903 31306 ft 494 kts 248°
2026-04-22 14:03 53.14323 176.87622 31307 ft 493 kts 248°
2026-04-22 14:04 53.11309 176.77361 31307 ft 493 kts 248°
2026-04-22 14:04 53.08282 176.67109 31296 ft 494 kts 248°
2026-04-22 14:05 53.05252 176.56867 31289 ft 493 kts 248°
2026-04-22 14:06 53.00709 176.41609 31291 ft 492 kts 248°
2026-04-22 14:06 52.97661 176.31433 31287 ft 492 kts 248°
2026-04-22 14:07 52.94614 176.21289 31286 ft 492 kts 248°
2026-04-22 14:07 52.91548 176.11148 31280 ft 491 kts 248°
2026-04-22 14:08 52.88485 176.01043 31281 ft 490 kts 248°
2026-04-22 14:08 52.85422 175.90979 31278 ft 490 kts 248°
2026-04-22 14:09 52.82351 175.80936 31281 ft 489 kts 248°
2026-04-22 14:09 52.79270 175.70906 31273 ft 488 kts 248°
2026-04-22 14:10 52.76191 175.60922 31269 ft 488 kts 248°
2026-04-22 14:10 52.73101 175.50934 31272 ft 488 kts 248°
2026-04-22 14:11 52.70027 175.41041 31266 ft 487 kts 247°
2026-04-22 14:11 52.66928 175.31112 31270 ft 488 kts 247°
2026-04-22 14:12 52.63807 175.21160 31261 ft 489 kts 247°
2026-04-22 14:12 52.60681 175.11226 31257 ft 490 kts 247°
2026-04-22 14:13 52.57536 175.01271 31253 ft 491 kts 247°
2026-04-22 14:13 52.54375 174.91309 31252 ft 492 kts 246°
2026-04-22 14:14 52.51204 174.81352 31253 ft 492 kts 246°
2026-04-22 14:14 52.48022 174.71405 31250 ft 492 kts 246°
2026-04-22 14:15 52.44829 174.61475 31254 ft 492 kts 246°
2026-04-22 14:15 52.41629 174.51552 31251 ft 493 kts 246°
2026-04-22 14:16 52.38420 174.41641 31250 ft 493 kts 246°
2026-04-22 14:16 52.35202 174.31743 31254 ft 493 kts 246°
2026-04-22 14:17 52.31976 174.21858 31252 ft 493 kts 245°
2026-04-22 14:17 52.28740 174.11986 31252 ft 493 kts 245°
2026-04-22 14:18 52.25498 174.02131 31254 ft 493 kts 245°
2026-04-22 14:18 52.22249 173.92292 31251 ft 492 kts 245°
2026-04-22 14:19 52.18994 173.82479 31253 ft 493 kts 245°
2026-04-22 14:19 52.15728 173.72676 31250 ft 492 kts 245°
2026-04-22 14:20 52.10837 173.58062 31252 ft 493 kts 245°
2026-04-22 14:20 52.07550 173.48284 31257 ft 493 kts 245°
2026-04-22 14:21 52.02601 173.33638 31262 ft 493 kts 244°
2026-04-22 14:22 51.97621 173.18990 31269 ft 494 kts 244°
2026-04-22 14:23 51.92629 173.04390 31258 ft 492 kts 243°
2026-04-22 14:23 51.89304 172.94714 31259 ft 491 kts 243°
2026-04-22 14:24 51.85980 172.85077 31260 ft 490 kts 243°
2026-04-22 14:24 51.82652 172.75466 31267 ft 489 kts 243°
2026-04-22 14:25 51.79317 172.65871 31271 ft 490 kts 242°
2026-04-22 14:25 51.75968 172.56271 31273 ft 491 kts 242°
2026-04-22 14:26 51.72623 172.46722 31271 ft 493 kts 242°
2026-04-22 14:26 51.69238 172.37091 31274 ft 494 kts 242°
2026-04-22 14:27 51.65840 172.27461 31276 ft 494 kts 242°
2026-04-22 14:27 51.62436 172.17851 31282 ft 495 kts 242°
2026-04-22 14:28 51.59020 172.08246 31289 ft 494 kts 242°
2026-04-22 14:28 51.55597 171.98653 31288 ft 495 kts 242°
2026-04-22 14:29 51.52165 171.89074 31297 ft 494 kts 241°
2026-04-22 14:29 51.48729 171.79524 31298 ft 494 kts 241°
2026-04-22 14:30 51.45291 171.69997 31304 ft 493 kts 241°
2026-04-22 14:30 51.41854 171.60503 31307 ft 492 kts 241°
2026-04-22 14:31 51.38545 171.50935 31305 ft 490 kts 245°
2026-04-22 14:31 51.35631 171.41088 31303 ft 489 kts 246°
2026-04-22 14:32 51.32782 171.31231 31318 ft 487 kts 246°
2026-04-22 14:32 51.29896 171.21431 31319 ft 487 kts 245°
2026-04-22 14:33 51.26975 171.11669 31324 ft 487 kts 245°
2026-04-22 14:33 51.24041 171.01942 31328 ft 487 kts 245°
2026-04-22 14:34 51.21095 170.92209 31328 ft 486 kts 245°
2026-04-22 14:34 51.18169 170.82568 31337 ft 486 kts 245°
2026-04-22 14:35 51.15195 170.72811 31337 ft 486 kts 245°
2026-04-22 14:35 51.12251 170.63199 31344 ft 486 kts 245°
2026-04-22 14:36 51.09287 170.53545 31347 ft 486 kts 244°
2026-04-22 14:36 51.06306 170.43873 31625 ft 487 kts 244°
2026-04-22 14:36 51.04814 170.39055 31921 ft 485 kts 244°
2026-04-22 14:37 51.03328 170.34262 32232 ft 482 kts 244°
2026-04-22 14:37 51.02345 170.31098 32426 ft 481 kts 244°
2026-04-22 14:37 51.00368 170.24742 32794 ft 479 kts 245°
2026-04-22 14:37 50.99388 170.21600 32945 ft 479 kts 245°
2026-04-22 14:38 50.97910 170.16864 33163 ft 479 kts 244°
2026-04-22 14:38 50.96427 170.12124 33290 ft 481 kts 245°
2026-04-22 14:38 50.94938 170.07367 33332 ft 482 kts 244°
2026-04-22 14:39 50.91966 169.97914 33364 ft 477 kts 244°
2026-04-22 14:39 50.89008 169.88538 33379 ft 475 kts 244°
2026-04-22 14:40 50.84567 169.74539 33384 ft 474 kts 244°
2026-04-22 14:40 50.81602 169.65220 33398 ft 475 kts 244°
2026-04-22 14:41 50.78622 169.55891 33406 ft 476 kts 244°
2026-04-22 14:41 50.75623 169.46550 33411 ft 477 kts 244°
2026-04-22 14:42 50.72609 169.37198 33418 ft 478 kts 244°
2026-04-22 14:42 50.69585 169.27846 33419 ft 478 kts 244°
2026-04-22 14:43 50.66556 169.18515 33418 ft 477 kts 244°
2026-04-22 14:43 50.63545 169.09270 33429 ft 477 kts 244°
2026-04-22 14:44 50.60491 168.99928 33432 ft 477 kts 244°
2026-04-22 14:44 50.57467 168.90718 33442 ft 477 kts 244°
2026-04-22 14:45 50.54418 168.81463 33448 ft 476 kts 244°
2026-04-22 14:45 50.51365 168.72233 33450 ft 475 kts 244°
2026-04-22 14:46 50.48308 168.63019 33460 ft 475 kts 244°
2026-04-22 14:46 50.45247 168.53823 33463 ft 475 kts 244°
2026-04-22 14:47 50.42181 168.44651 33469 ft 474 kts 243°
2026-04-22 14:47 50.39111 168.35501 33479 ft 474 kts 243°
2026-04-22 14:48 50.36038 168.26376 33479 ft 473 kts 243°
2026-04-22 14:48 50.32961 168.17270 33489 ft 473 kts 243°
2026-04-22 14:49 50.29899 168.08246 33497 ft 472 kts 243°
2026-04-22 14:49 50.26813 167.99178 33498 ft 472 kts 243°
2026-04-22 14:50 50.23721 167.90125 33509 ft 472 kts 243°
2026-04-22 14:50 50.20623 167.81089 33515 ft 472 kts 243°
2026-04-22 14:51 50.17517 167.72063 33523 ft 472 kts 243°
2026-04-22 14:51 50.14403 167.63044 33524 ft 472 kts 243°
2026-04-22 14:52 50.11281 167.54028 33530 ft 473 kts 243°
2026-04-22 14:52 50.08146 167.45018 33532 ft 473 kts 243°
2026-04-22 14:53 50.05002 167.36011 33544 ft 474 kts 243°
2026-04-22 14:53 50.01848 167.27009 33551 ft 474 kts 243°
2026-04-22 14:54 49.98688 167.18007 33556 ft 474 kts 243°
2026-04-22 14:54 49.95542 167.09081 33564 ft 474 kts 243°
2026-04-22 14:55 49.92367 167.00109 33566 ft 473 kts 243°
2026-04-22 14:55 49.89195 166.91183 33572 ft 473 kts 243°
2026-04-22 14:56 49.86019 166.82267 33581 ft 472 kts 243°
2026-04-22 14:56 49.82839 166.73367 33586 ft 472 kts 243°
2026-04-22 14:57 49.79651 166.64486 33595 ft 471 kts 243°
2026-04-22 14:57 49.76463 166.55631 33603 ft 471 kts 242°
2026-04-22 14:58 49.73264 166.46775 33611 ft 472 kts 242°
2026-04-22 14:58 49.70052 166.37918 33617 ft 473 kts 242°
2026-04-22 14:59 49.66832 166.29057 33617 ft 473 kts 242°
2026-04-22 14:59 49.63583 166.20301 33627 ft 474 kts 241°
2026-04-22 15:00 49.60166 166.11597 33633 ft 475 kts 240°
2026-04-22 15:00 49.56720 166.02915 33640 ft 475 kts 240°
2026-04-22 15:01 49.53285 165.94230 33638 ft 475 kts 240°
2026-04-22 15:01 49.49853 165.85547 33645 ft 475 kts 240°
2026-04-22 15:02 49.46424 165.76877 33649 ft 474 kts 240°
2026-04-22 15:02 49.42989 165.68224 33655 ft 474 kts 240°
2026-04-22 15:03 49.39549 165.59590 33654 ft 474 kts 240°
2026-04-22 15:03 49.36103 165.50980 33666 ft 473 kts 240°
2026-04-22 15:04 49.32651 165.42375 33664 ft 474 kts 240°
2026-04-22 15:04 49.29192 165.33775 33674 ft 474 kts 240°
2026-04-22 15:05 49.25747 165.25248 33682 ft 475 kts 240°
2026-04-22 15:05 49.22268 165.16653 33687 ft 475 kts 240°
2026-04-22 15:06 49.18775 165.08054 33681 ft 476 kts 240°
2026-04-22 15:06 49.15276 164.99472 33688 ft 476 kts 240°
2026-04-22 15:07 49.11775 164.90913 33691 ft 475 kts 239°
2026-04-22 15:07 49.08263 164.82355 33693 ft 475 kts 239°
2026-04-22 15:08 49.04748 164.73817 33703 ft 475 kts 239°
2026-04-22 15:08 49.01226 164.65289 33703 ft 475 kts 239°
2026-04-22 15:09 48.97721 164.56825 33709 ft 476 kts 239°
2026-04-22 15:09 48.94185 164.48316 33712 ft 476 kts 239°
2026-04-22 15:10 48.90640 164.39813 33713 ft 476 kts 239°
2026-04-22 15:10 48.87086 164.31318 33718 ft 476 kts 239°
2026-04-22 15:11 48.83523 164.22829 33723 ft 477 kts 239°
2026-04-22 15:11 48.79956 164.14349 33719 ft 477 kts 239°
2026-04-22 15:12 48.76378 164.05872 33730 ft 477 kts 239°
2026-04-22 15:12 48.72787 163.97403 33736 ft 478 kts 239°
2026-04-22 15:13 48.69204 163.88972 33731 ft 474 kts 239°
2026-04-22 15:13 48.65642 163.80612 33729 ft 471 kts 239°
2026-04-22 15:14 48.62096 163.72317 33736 ft 468 kts 239°
2026-04-22 15:14 48.58585 163.64133 33740 ft 466 kts 239°
2026-04-22 15:15 48.55054 163.55927 33737 ft 466 kts 238°
2026-04-22 15:15 48.51521 163.47731 33743 ft 466 kts 238°
2026-04-22 15:16 48.47975 163.39535 33762 ft 467 kts 238°
2026-04-22 15:16 48.44415 163.31339 33760 ft 468 kts 238°
2026-04-22 15:17 48.40845 163.23140 33750 ft 468 kts 238°
2026-04-22 15:17 48.37267 163.14954 33753 ft 468 kts 238°
2026-04-22 15:18 48.33689 163.06783 33761 ft 468 kts 238°
2026-04-22 15:18 48.30127 162.98677 33757 ft 467 kts 238°
2026-04-22 15:19 48.26523 162.90502 33757 ft 465 kts 238°
2026-04-22 15:19 48.22957 162.82430 33768 ft 464 kts 238°
2026-04-22 15:20 48.19413 162.74449 33768 ft 462 kts 238°
2026-04-22 15:20 48.15860 162.66453 33766 ft 460 kts 237°
2026-04-22 15:21 48.12314 162.58497 33760 ft 459 kts 237°
2026-04-22 15:21 48.08770 162.50573 33766 ft 458 kts 237°
2026-04-22 15:22 48.05222 162.42671 33766 ft 457 kts 237°
2026-04-22 15:22 48.01686 162.34808 33774 ft 456 kts 237°
2026-04-22 15:23 47.98146 162.26959 33780 ft 455 kts 237°
2026-04-22 15:23 47.94601 162.19126 33781 ft 455 kts 237°
2026-04-22 15:24 47.91059 162.11319 33780 ft 454 kts 237°
2026-04-22 15:24 47.87519 162.03539 33783 ft 454 kts 237°
2026-04-22 15:25 47.83971 161.95765 33782 ft 454 kts 237°
2026-04-22 15:25 47.80414 161.87996 33778 ft 454 kts 237°
2026-04-22 15:26 47.76873 161.80280 33782 ft 455 kts 237°
2026-04-22 15:26 47.73300 161.72518 33783 ft 455 kts 237°
2026-04-22 15:27 47.69721 161.64763 33788 ft 455 kts 237°
2026-04-22 15:27 47.66142 161.57028 33785 ft 455 kts 237°
2026-04-22 15:28 47.62551 161.49293 33789 ft 455 kts 237°
2026-04-22 15:28 47.59562 161.42870 33786 ft 455 kts 237°
2026-04-22 15:29 47.55967 161.35156 33786 ft 455 kts 237°
2026-04-22 15:30 47.50480 161.23705 33785 ft 454 kts 236°
2026-04-22 15:30 47.46773 161.16141 33788 ft 454 kts 236°
2026-04-22 15:31 47.43072 161.08584 33796 ft 454 kts 236°
2026-04-22 15:31 47.39376 161.01036 33795 ft 454 kts 236°
2026-04-22 15:32 47.35680 160.93504 33795 ft 454 kts 236°
2026-04-22 15:32 47.31974 160.85966 33797 ft 454 kts 236°
2026-04-22 15:33 47.28258 160.78432 33797 ft 455 kts 236°
2026-04-22 15:33 47.24536 160.70905 33795 ft 455 kts 236°
2026-04-22 15:34 47.20832 160.63438 33796 ft 455 kts 236°
2026-04-22 15:34 47.17098 160.55929 33798 ft 455 kts 236°
2026-04-22 15:35 47.13359 160.48432 33795 ft 455 kts 236°
2026-04-22 15:35 47.09618 160.40949 33799 ft 454 kts 236°
2026-04-22 15:36 47.05876 160.33485 33795 ft 454 kts 236°
2026-04-22 15:36 47.02135 160.26044 33796 ft 453 kts 236°
2026-04-22 15:37 46.98397 160.18626 33795 ft 452 kts 236°
2026-04-22 15:37 46.94667 160.11244 33797 ft 451 kts 236°
2026-04-22 15:38 46.90934 160.03881 33797 ft 450 kts 236°
2026-04-22 15:38 46.85343 159.92891 33798 ft 448 kts 237°
2026-04-22 15:39 46.81623 159.85601 33795 ft 447 kts 237°
2026-04-22 15:39 46.77910 159.78341 33797 ft 446 kts 237°
2026-04-22 15:40 46.74226 159.71156 33795 ft 445 kts 237°
2026-04-22 15:40 46.70500 159.63908 33796 ft 444 kts 237°
2026-04-22 15:41 46.66818 159.56763 33806 ft 443 kts 237°
2026-04-22 15:41 46.63115 159.49596 33805 ft 442 kts 237°
2026-04-22 15:42 46.59412 159.42449 33805 ft 442 kts 237°
2026-04-22 15:42 46.55704 159.35314 33804 ft 442 kts 237°
2026-04-22 15:43 46.51995 159.28191 33805 ft 442 kts 237°
2026-04-22 15:43 46.48282 159.21078 33809 ft 442 kts 237°
2026-04-22 15:44 46.44561 159.13974 33804 ft 442 kts 237°
2026-04-22 15:44 46.40846 159.06895 33805 ft 442 kts 237°
2026-04-22 15:45 46.37125 158.99818 33807 ft 441 kts 237°
2026-04-22 15:45 46.33402 158.92763 33805 ft 441 kts 237°
2026-04-22 15:46 46.29684 158.85730 33804 ft 439 kts 237°
2026-04-22 15:46 46.25997 158.78776 33805 ft 438 kts 237°
2026-04-22 15:47 46.22294 158.71807 33807 ft 436 kts 237°
2026-04-22 15:47 46.18599 158.64873 33805 ft 435 kts 237°
2026-04-22 15:48 46.14913 158.57972 33803 ft 433 kts 237°
2026-04-22 15:48 46.11241 158.51115 33806 ft 431 kts 237°
2026-04-22 15:49 46.07577 158.44294 33805 ft 430 kts 237°
2026-04-22 15:49 46.03928 158.37506 33846 ft 427 kts 237°
2026-04-22 15:50 46.00293 158.30764 33880 ft 426 kts 237°
2026-04-22 15:50 45.96665 158.24049 33891 ft 425 kts 238°
2026-04-22 15:51 45.93034 158.17350 33878 ft 424 kts 238°
2026-04-22 15:51 45.89404 158.10667 33879 ft 424 kts 237°
2026-04-22 15:52 45.85772 158.03997 33879 ft 424 kts 237°
2026-04-22 15:52 45.82157 157.97375 33884 ft 425 kts 237°
2026-04-22 15:53 45.78513 157.90707 33878 ft 425 kts 237°
2026-04-22 15:53 45.74857 157.84048 33883 ft 425 kts 237°
2026-04-22 15:54 45.71201 157.77395 33885 ft 425 kts 237°
2026-04-22 15:54 45.67542 157.70755 33876 ft 425 kts 237°
2026-04-22 15:55 45.63886 157.64136 33881 ft 423 kts 237°
2026-04-22 15:55 45.60239 157.57548 33877 ft 422 kts 238°
2026-04-22 15:56 45.56596 157.50984 33879 ft 421 kts 238°
2026-04-22 15:56 45.52962 157.44449 33880 ft 420 kts 238°
2026-04-22 15:57 45.49336 157.37944 33869 ft 418 kts 238°
2026-04-22 15:57 45.45714 157.31465 33871 ft 417 kts 238°
2026-04-22 15:58 45.42105 157.25016 33868 ft 416 kts 238°
2026-04-22 15:58 45.38504 157.18599 33870 ft 414 kts 238°
2026-04-22 15:59 45.34911 157.12212 33870 ft 413 kts 238°
2026-04-22 15:59 45.31326 157.05851 33871 ft 412 kts 238°
2026-04-22 16:00 45.27733 156.99497 33872 ft 412 kts 238°
2026-04-22 16:00 45.24141 156.93152 33872 ft 412 kts 238°
2026-04-22 16:01 45.20549 156.86824 33870 ft 411 kts 238°
2026-04-22 16:01 45.16957 156.80512 33871 ft 411 kts 238°
2026-04-22 16:02 45.13390 156.74258 33869 ft 411 kts 238°
2026-04-22 16:02 45.09776 156.67931 33870 ft 410 kts 238°
2026-04-22 16:03 45.06191 156.61671 33861 ft 410 kts 238°
2026-04-22 16:03 45.02602 156.55420 33860 ft 409 kts 238°
2026-04-22 16:04 44.99014 156.49184 33861 ft 408 kts 237°
2026-04-22 16:04 44.95439 156.42979 33861 ft 407 kts 238°
2026-04-22 16:05 44.91863 156.36788 33862 ft 406 kts 238°
2026-04-22 16:05 44.88290 156.30618 33862 ft 406 kts 238°
2026-04-22 16:06 44.84721 156.24469 33860 ft 405 kts 238°
2026-04-22 16:06 44.81158 156.18342 33860 ft 404 kts 238°
2026-04-22 16:07 44.77605 156.12246 33862 ft 402 kts 238°
2026-04-22 16:07 44.74080 156.06209 33859 ft 401 kts 238°
2026-04-22 16:08 44.70536 156.00157 33861 ft 400 kts 238°
2026-04-22 16:08 44.67001 155.94128 33862 ft 399 kts 237°
2026-04-22 16:09 44.63474 155.88124 33859 ft 398 kts 237°
2026-04-22 16:09 44.59950 155.82141 33852 ft 397 kts 238°
2026-04-22 16:10 44.56433 155.76182 33850 ft 396 kts 238°
2026-04-22 16:10 44.52920 155.70244 33852 ft 395 kts 238°
2026-04-22 16:11 44.49409 155.64322 33852 ft 395 kts 237°
2026-04-22 16:11 44.45895 155.58402 33852 ft 395 kts 237°
2026-04-22 16:12 44.42375 155.52483 33856 ft 396 kts 237°
2026-04-22 16:12 44.38846 155.46566 33864 ft 396 kts 237°
2026-04-22 16:13 44.35335 155.40692 33858 ft 397 kts 237°
2026-04-22 16:13 44.31790 155.34772 33852 ft 397 kts 237°
2026-04-22 16:14 44.28239 155.28855 33851 ft 398 kts 237°
2026-04-22 16:14 44.24685 155.22943 33854 ft 397 kts 237°
2026-04-22 16:15 44.21132 155.17045 33850 ft 397 kts 237°
2026-04-22 16:15 44.17576 155.11153 33852 ft 397 kts 237°
2026-04-22 16:16 44.13986 155.05308 33851 ft 397 kts 236°
2026-04-22 16:16 44.10350 154.99521 33851 ft 397 kts 236°
2026-04-22 16:17 44.07328 154.94723 33852 ft 396 kts 236°
2026-04-22 16:17 44.03700 154.88961 33852 ft 395 kts 236°
2026-04-22 16:18 43.99493 154.82281 33852 ft 395 kts 236°
2026-04-22 16:18 43.96467 154.77487 33861 ft 393 kts 237°
2026-04-22 16:19 43.92872 154.71801 33848 ft 390 kts 237°
2026-04-22 16:19 43.89302 154.66165 33848 ft 388 kts 237°
2026-04-22 16:20 43.85749 154.60567 33851 ft 386 kts 237°
2026-04-22 16:20 43.82227 154.55024 33851 ft 386 kts 237°
2026-04-22 16:21 43.78677 154.49445 33853 ft 387 kts 237°
2026-04-22 16:21 43.75112 154.43849 33854 ft 388 kts 237°
2026-04-22 16:22 43.69733 154.35442 33853 ft 390 kts 237°
2026-04-22 16:23 43.64329 154.27023 33850 ft 391 kts 236°
2026-04-22 16:23 43.60716 154.21410 33841 ft 391 kts 236°
2026-04-22 16:24 43.55295 154.12998 33843 ft 391 kts 236°
2026-04-22 16:25 43.51680 154.07406 33842 ft 390 kts 236°
2026-04-22 16:25 43.46264 153.99045 33840 ft 389 kts 236°
2026-04-22 16:26 43.42659 153.93494 33842 ft 388 kts 236°
2026-04-22 16:26 43.39059 153.87965 33850 ft 387 kts 236°
2026-04-22 16:27 43.35465 153.82455 33851 ft 387 kts 236°
2026-04-22 16:27 43.31897 153.76991 33846 ft 386 kts 236°
2026-04-22 16:28 43.28305 153.71504 33841 ft 386 kts 236°
2026-04-22 16:28 43.24714 153.66026 33845 ft 386 kts 236°
2026-04-22 16:29 43.21127 153.60564 33841 ft 386 kts 236°
2026-04-22 16:29 43.17541 153.55112 33844 ft 385 kts 236°
2026-04-22 16:30 43.13955 153.49679 33870 ft 384 kts 236°
2026-04-22 16:30 43.10396 153.44293 33879 ft 384 kts 236°
2026-04-22 16:31 43.06813 153.38880 33880 ft 384 kts 236°
2026-04-22 16:31 43.03227 153.33472 33879 ft 384 kts 236°
2026-04-22 16:32 42.99638 153.28075 33880 ft 383 kts 236°
2026-04-22 16:32 42.96053 153.22688 33880 ft 383 kts 236°
2026-04-22 16:33 42.92471 153.17317 33879 ft 383 kts 236°
2026-04-22 16:33 42.88884 153.11948 33879 ft 382 kts 236°
2026-04-22 16:34 42.85303 153.06596 33881 ft 382 kts 236°
2026-04-22 16:34 42.81717 153.01251 33878 ft 382 kts 235°
2026-04-22 16:35 42.78135 152.95922 33881 ft 381 kts 235°
2026-04-22 16:35 42.74553 152.90602 33880 ft 381 kts 235°
2026-04-22 16:36 42.70973 152.85293 33878 ft 381 kts 235°
2026-04-22 16:36 42.67392 152.79994 33882 ft 380 kts 235°
2026-04-22 16:37 42.63817 152.74709 33883 ft 380 kts 235°
2026-04-22 16:37 42.60266 152.69473 33881 ft 379 kts 235°
2026-04-22 16:38 42.56693 152.64215 33878 ft 379 kts 235°
2026-04-22 16:38 42.53123 152.58971 33880 ft 378 kts 235°
2026-04-22 16:39 42.49554 152.53737 33867 ft 378 kts 234°
2026-04-22 16:39 42.45984 152.48509 33870 ft 377 kts 234°
2026-04-22 16:40 42.42418 152.43297 33872 ft 377 kts 234°
2026-04-22 16:41 42.37083 152.35514 33867 ft 376 kts 234°
2026-04-22 16:41 42.33540 152.30340 33863 ft 374 kts 234°
2026-04-22 16:42 42.30026 152.25230 33865 ft 370 kts 234°
2026-04-22 16:42 42.26492 152.20137 33876 ft 373 kts 234°
2026-04-22 16:43 42.22936 152.14995 33875 ft 376 kts 234°
2026-04-22 16:43 42.19372 152.09837 33866 ft 377 kts 234°
2026-04-22 16:44 42.15793 152.04677 33873 ft 376 kts 234°
2026-04-22 16:44 42.12240 151.99558 33872 ft 376 kts 234°
2026-04-22 16:45 42.08659 151.94427 33869 ft 375 kts 234°
2026-04-22 16:45 42.05089 151.89309 33871 ft 374 kts 234°
2026-04-22 16:46 42.01524 151.84205 33869 ft 374 kts 234°
2026-04-22 16:46 41.97970 151.79122 33869 ft 373 kts 234°
2026-04-22 16:47 41.94422 151.74055 33870 ft 373 kts 234°
2026-04-22 16:47 41.91463 151.69838 33871 ft 373 kts 234°
2026-04-22 16:48 41.87295 151.63911 33870 ft 374 kts 234°
2026-04-22 16:48 41.83744 151.58869 33868 ft 374 kts 234°
2026-04-22 16:49 41.80166 151.53799 33871 ft 375 kts 234°
2026-04-22 16:49 41.76576 151.48724 33871 ft 376 kts 234°
2026-04-22 16:50 41.72976 151.43637 33870 ft 377 kts 234°
2026-04-22 16:50 41.69365 151.38544 33871 ft 378 kts 233°
2026-04-22 16:51 41.65739 151.33441 33872 ft 379 kts 233°
2026-04-22 16:51 41.62098 151.28327 33869 ft 379 kts 233°
2026-04-22 16:52 41.58455 151.23220 33871 ft 380 kts 233°
2026-04-22 16:52 41.54831 151.18149 33870 ft 380 kts 233°
2026-04-22 16:53 41.51180 151.13050 33871 ft 380 kts 233°
2026-04-22 16:53 41.47527 151.07950 33870 ft 380 kts 233°
2026-04-22 16:54 41.43867 151.02853 33871 ft 380 kts 233°
2026-04-22 16:54 41.40202 150.97760 33871 ft 381 kts 233°
2026-04-22 16:55 41.36534 150.92670 33870 ft 381 kts 233°
2026-04-22 16:55 41.32867 150.87591 33869 ft 381 kts 233°
2026-04-22 16:56 41.29193 150.82510 33870 ft 381 kts 233°
2026-04-22 16:56 41.25515 150.77431 33871 ft 381 kts 233°
2026-04-22 16:57 41.21831 150.72355 33870 ft 382 kts 233°
2026-04-22 16:57 41.18143 150.67282 33870 ft 382 kts 233°
2026-04-22 16:58 41.15070 150.63066 33870 ft 382 kts 233°
2026-04-22 16:58 41.10746 150.57137 33870 ft 383 kts 233°
2026-04-22 16:59 41.07040 150.52065 33871 ft 383 kts 233°
2026-04-22 16:59 41.03358 150.47030 33869 ft 383 kts 233°
2026-04-22 17:00 40.99644 150.41968 33871 ft 383 kts 233°
2026-04-22 17:00 40.94067 150.34379 33871 ft 383 kts 233°
2026-04-22 17:01 40.90346 150.29324 33870 ft 383 kts 233°
2026-04-22 17:01 40.86624 150.24279 33870 ft 383 kts 233°
2026-04-22 17:02 40.82905 150.19244 33870 ft 383 kts 232°
2026-04-22 17:02 40.79187 150.14222 33870 ft 382 kts 232°
2026-04-22 17:03 40.75470 150.09211 33871 ft 382 kts 232°
2026-04-22 17:03 40.71757 150.04213 33878 ft 381 kts 232°
2026-04-22 17:04 40.68047 149.99225 33878 ft 381 kts 232°
2026-04-22 17:04 40.64335 149.94241 33880 ft 382 kts 232°
2026-04-22 17:05 40.60607 149.89245 33878 ft 383 kts 232°
2026-04-22 17:05 40.56867 149.84242 33879 ft 384 kts 232°
2026-04-22 17:06 40.53121 149.79242 33878 ft 384 kts 232°
2026-04-22 17:06 40.49368 149.74238 33882 ft 384 kts 232°
2026-04-22 17:07 40.46249 149.70085 33880 ft 384 kts 232°
2026-04-22 17:07 40.42490 149.65089 33879 ft 384 kts 232°
2026-04-22 17:08 40.38726 149.60117 33878 ft 384 kts 232°
2026-04-22 17:08 40.34962 149.55164 33878 ft 383 kts 232°
2026-04-22 17:09 40.31195 149.50220 33878 ft 383 kts 232°
2026-04-22 17:09 40.27427 149.45277 33879 ft 383 kts 232°
2026-04-22 17:10 40.23669 149.40348 33880 ft 383 kts 232°
2026-04-22 17:10 40.19901 149.35418 33877 ft 383 kts 232°
2026-04-22 17:11 40.16127 149.30489 33881 ft 384 kts 232°
2026-04-22 17:11 40.12347 149.25558 33879 ft 384 kts 232°
2026-04-22 17:12 40.08563 149.20626 33892 ft 384 kts 232°
2026-04-22 17:12 40.04776 149.15707 33902 ft 384 kts 232°
2026-04-22 17:13 40.00993 149.10802 33897 ft 383 kts 232°
2026-04-22 17:13 39.97241 149.05939 33892 ft 383 kts 232°
2026-04-22 17:14 39.93459 149.01046 33904 ft 383 kts 232°
2026-04-22 17:14 39.89670 148.96148 33895 ft 384 kts 232°
2026-04-22 17:15 39.85876 148.91258 33900 ft 384 kts 232°
2026-04-22 17:15 39.82071 148.86362 33900 ft 384 kts 232°
2026-04-22 17:16 39.78267 148.81474 33902 ft 384 kts 232°
2026-04-22 17:16 39.74464 148.76597 33893 ft 384 kts 231°
2026-04-22 17:17 39.70665 148.71730 33900 ft 383 kts 231°
2026-04-22 17:17 39.66869 148.66875 33901 ft 383 kts 231°
2026-04-22 17:18 39.63072 148.62029 33895 ft 383 kts 231°
2026-04-22 17:18 39.59276 148.57192 33897 ft 382 kts 231°
2026-04-22 17:19 39.51678 148.47534 33902 ft 382 kts 231°
2026-04-22 17:20 39.44105 148.37934 33899 ft 382 kts 231°
2026-04-22 17:21 39.38399 148.30723 33897 ft 382 kts 231°
2026-04-22 17:22 39.32682 148.23515 33896 ft 384 kts 231°
2026-04-22 17:23 39.26937 148.16290 33900 ft 385 kts 231°
2026-04-22 17:23 39.21171 148.09056 33895 ft 386 kts 231°
2026-04-22 17:24 39.17316 148.04228 33903 ft 387 kts 231°
2026-04-22 17:24 39.13449 147.99395 33900 ft 387 kts 231°
2026-04-22 17:25 39.09577 147.94562 33896 ft 388 kts 232°
2026-04-22 17:25 39.05700 147.89734 33896 ft 388 kts 232°
2026-04-22 17:26 39.01813 147.84898 33895 ft 389 kts 232°
2026-04-22 17:26 38.97913 147.80054 33894 ft 390 kts 232°
2026-04-22 17:27 38.94004 147.75200 33895 ft 391 kts 232°
2026-04-22 17:27 38.90080 147.70345 33898 ft 392 kts 232°
2026-04-22 17:28 38.86151 147.65491 33901 ft 393 kts 232°
2026-04-22 17:28 38.82211 147.60627 33898 ft 393 kts 232°
2026-04-22 17:29 38.78263 147.55762 33901 ft 394 kts 232°
2026-04-22 17:29 38.74307 147.50897 33899 ft 394 kts 232°
2026-04-22 17:30 38.70342 147.46032 33899 ft 395 kts 232°
2026-04-22 17:30 38.66373 147.41166 33900 ft 395 kts 232°
2026-04-22 17:31 38.62398 147.36299 33894 ft 396 kts 232°
2026-04-22 17:31 38.58417 147.31433 33903 ft 396 kts 232°
2026-04-22 17:32 38.54431 147.26567 33909 ft 396 kts 232°
2026-04-22 17:32 38.50441 147.21705 33907 ft 396 kts 232°
2026-04-22 17:33 38.46475 147.16887 33905 ft 396 kts 232°
2026-04-22 17:33 38.42462 147.12016 33905 ft 396 kts 232°
2026-04-22 17:34 38.38498 147.07209 33911 ft 396 kts 232°
2026-04-22 17:34 38.34502 147.02371 33906 ft 396 kts 232°
2026-04-22 17:35 38.30502 146.97536 33904 ft 397 kts 232°
2026-04-22 17:35 38.26495 146.92702 33906 ft 397 kts 232°
2026-04-22 17:36 38.22482 146.87868 33914 ft 397 kts 232°
2026-04-22 17:36 38.18468 146.83041 33917 ft 398 kts 232°
2026-04-22 17:37 38.14440 146.78206 33918 ft 398 kts 232°
2026-04-22 17:37 38.10417 146.73381 33915 ft 398 kts 232°
2026-04-22 17:38 38.06389 146.68558 33918 ft 398 kts 232°
2026-04-22 17:38 38.02354 146.63735 33917 ft 399 kts 232°
2026-04-22 17:39 37.98312 146.58915 33913 ft 399 kts 232°
2026-04-22 17:40 37.92220 146.51658 33919 ft 402 kts 232°
2026-04-22 17:40 37.88133 146.46802 33953 ft 403 kts 232°
2026-04-22 17:41 37.84042 146.41949 33962 ft 403 kts 232°
2026-04-22 17:41 37.79941 146.37090 33954 ft 404 kts 232°
2026-04-22 17:42 37.75834 146.32237 33949 ft 404 kts 232°
2026-04-22 17:42 37.72427 146.28215 33949 ft 403 kts 232°
2026-04-22 17:43 37.67638 146.22566 33955 ft 403 kts 232°
2026-04-22 17:43 37.63541 146.17742 33951 ft 403 kts 232°
2026-04-22 17:44 37.59442 146.12930 33956 ft 402 kts 232°
2026-04-22 17:44 37.55348 146.08122 33952 ft 402 kts 232°
2026-04-22 17:45 37.51249 146.03318 33953 ft 403 kts 232°
2026-04-22 17:45 37.47145 145.98517 33961 ft 403 kts 232°
2026-04-22 17:46 37.43039 145.93724 33951 ft 403 kts 232°
2026-04-22 17:46 37.38932 145.88934 33958 ft 403 kts 232°
2026-04-22 17:47 37.34823 145.84149 33953 ft 402 kts 232°
2026-04-22 17:47 37.30716 145.79374 33948 ft 403 kts 232°
2026-04-22 17:48 37.27292 145.75396 33955 ft 403 kts 232°
2026-04-22 17:48 37.22593 145.69751 33931 ft 397 kts 238°
2026-04-22 17:49 37.19484 145.64132 33950 ft 391 kts 244°
2026-04-22 17:49 37.17089 145.58022 33945 ft 391 kts 253°
2026-04-22 17:50 37.15215 145.51603 33953 ft 393 kts 253°
2026-04-22 17:50 37.13330 145.45162 33946 ft 394 kts 253°
2026-04-22 17:51 37.11431 145.38740 33934 ft 393 kts 253°
2026-04-22 17:51 37.09525 145.32335 33935 ft 392 kts 253°
2026-04-22 17:52 37.07940 145.27029 33936 ft 391 kts 253°
2026-04-22 17:52 37.05726 145.19639 33935 ft 389 kts 253°
2026-04-22 17:53 37.03823 145.13296 33936 ft 389 kts 253°
2026-04-22 17:53 37.02227 145.07987 33952 ft 389 kts 253°
2026-04-22 17:54 37.00318 145.01654 33952 ft 389 kts 253°
2026-04-22 17:54 36.98403 144.95317 33954 ft 390 kts 253°
2026-04-22 17:55 36.96482 144.88972 33942 ft 391 kts 252°
2026-04-22 17:55 36.94558 144.82625 33935 ft 391 kts 252°
2026-04-22 17:56 36.92638 144.76311 33935 ft 391 kts 252°
2026-04-22 17:56 36.90701 144.69958 33938 ft 391 kts 252°
2026-04-22 17:57 36.88761 144.63610 33942 ft 391 kts 252°
2026-04-22 17:57 36.86819 144.57266 33941 ft 391 kts 252°
2026-04-22 17:58 36.84873 144.50922 33940 ft 391 kts 252°
2026-04-22 17:58 36.82924 144.44586 33936 ft 392 kts 252°
2026-04-22 17:59 36.80967 144.38229 33946 ft 392 kts 252°
2026-04-22 17:59 36.79006 144.31884 33939 ft 393 kts 252°
2026-04-22 18:00 36.77360 144.26601 33944 ft 393 kts 252°
2026-04-22 18:00 36.75043 144.19164 33938 ft 393 kts 252°
2026-04-22 18:01 36.73056 144.12802 33934 ft 394 kts 252°
2026-04-22 18:01 36.71076 144.06476 33935 ft 395 kts 252°
2026-04-22 18:02 36.69076 144.00102 33936 ft 395 kts 252°
2026-04-22 18:02 36.67069 143.93716 33936 ft 395 kts 252°
2026-04-22 18:03 36.65062 143.87335 33936 ft 396 kts 252°
2026-04-22 18:03 36.63050 143.80962 33935 ft 396 kts 252°
2026-04-22 18:04 36.61030 143.74588 33935 ft 396 kts 252°
2026-04-22 18:04 36.59010 143.68220 33936 ft 395 kts 252°
2026-04-22 18:05 36.56986 143.61856 33936 ft 396 kts 252°
2026-04-22 18:05 36.54961 143.55497 33933 ft 395 kts 252°
2026-04-22 18:06 36.52932 143.49143 33935 ft 395 kts 252°
2026-04-22 18:06 36.50901 143.42793 33935 ft 395 kts 252°
2026-04-22 18:07 36.48866 143.36444 33935 ft 395 kts 252°
2026-04-22 18:07 36.46831 143.30109 33935 ft 395 kts 252°
2026-04-22 18:08 36.44803 143.23811 33935 ft 395 kts 252°
2026-04-22 18:08 36.42762 143.17490 33934 ft 395 kts 252°
2026-04-22 18:09 36.40718 143.11169 33935 ft 394 kts 252°
2026-04-22 18:09 36.38672 143.04854 33936 ft 394 kts 252°
2026-04-22 18:10 36.36622 142.98539 33935 ft 395 kts 252°
2026-04-22 18:10 36.34567 142.92227 33935 ft 395 kts 252°
2026-04-22 18:11 36.32508 142.85914 33951 ft 395 kts 252°
2026-04-22 18:11 36.30444 142.79600 33953 ft 395 kts 252°
2026-04-22 18:12 36.28376 142.73283 33941 ft 396 kts 252°
2026-04-22 18:12 36.26653 142.68034 33944 ft 396 kts 252°
2026-04-22 18:13 36.24235 142.60677 33952 ft 397 kts 251°
2026-04-22 18:13 36.22141 142.54327 33942 ft 399 kts 251°
2026-04-22 18:14 36.20037 142.47955 33941 ft 400 kts 250°
2026-04-22 18:14 36.17925 142.41584 33947 ft 400 kts 250°
2026-04-22 18:15 36.15678 142.35270 33932 ft 401 kts 249°
2026-04-22 18:15 36.13383 142.28984 33936 ft 400 kts 248°
2026-04-22 18:16 36.11120 142.22738 34178 ft 401 kts 249°
2026-04-22 18:16 36.09983 142.19594 34514 ft 399 kts 249°
2026-04-22 18:16 36.08853 142.16471 34898 ft 396 kts 249°
2026-04-22 18:16 36.07731 142.13373 35254 ft 394 kts 249°
2026-04-22 18:17 36.06615 142.10293 35583 ft 391 kts 249°
2026-04-22 18:17 36.05509 142.07225 35839 ft 391 kts 249°
2026-04-22 18:17 36.04405 142.04149 35860 ft 392 kts 250°
2026-04-22 18:18 36.02210 141.98038 35920 ft 386 kts 250°
2026-04-22 18:18 36.00040 141.92012 35934 ft 383 kts 250°
2026-04-22 18:19 35.97883 141.86029 35937 ft 381 kts 250°
2026-04-22 18:19 35.95719 141.80046 35936 ft 382 kts 250°
2026-04-22 18:20 35.93842 141.73984 35940 ft 380 kts 256°
2026-04-22 18:20 35.92453 141.67677 35940 ft 382 kts 256°
2026-04-22 18:21 35.91045 141.61332 35938 ft 385 kts 256°
2026-04-22 18:21 35.89626 141.54952 35935 ft 387 kts 256°
2026-04-22 18:22 35.88195 141.48547 35936 ft 388 kts 256°
2026-04-22 18:22 35.86754 141.42123 35936 ft 389 kts 256°
2026-04-22 18:23 35.85307 141.35686 35938 ft 390 kts 256°
2026-04-22 18:23 35.83854 141.29244 35934 ft 390 kts 256°
2026-04-22 18:24 35.81667 141.19576 35936 ft 390 kts 256°
2026-04-22 18:25 35.79479 141.09941 35936 ft 391 kts 256°
2026-04-22 18:25 35.78008 141.03489 35934 ft 392 kts 256°
2026-04-22 18:26 35.75788 140.93780 35933 ft 393 kts 256°
2026-04-22 18:26 35.74303 140.87301 35937 ft 394 kts 256°
2026-04-22 18:27 35.72607 140.80884 35938 ft 396 kts 250°
2026-04-22 18:27 35.70222 140.74754 35936 ft 400 kts 244°
2026-04-22 18:28 35.67434 140.68834 35934 ft 400 kts 244°
2026-04-22 18:28 35.64637 140.62927 35937 ft 400 kts 244°
2026-04-22 18:29 35.61844 140.57012 35934 ft 400 kts 244°
2026-04-22 18:29 35.59075 140.51149 35934 ft 399 kts 244°
2026-04-22 18:30 35.54899 140.42307 35935 ft 399 kts 244°
2026-04-22 18:31 35.52112 140.36424 35936 ft 399 kts 244°
2026-04-22 18:31 35.49323 140.30547 35935 ft 398 kts 244°
2026-04-22 18:32 35.46533 140.24673 35935 ft 399 kts 244°
2026-04-22 18:32 35.43739 140.18803 35934 ft 399 kts 244°
2026-04-22 18:33 35.40939 140.12933 35939 ft 399 kts 244°
2026-04-22 18:33 35.38133 140.07054 35935 ft 400 kts 244°
2026-04-22 18:34 35.35324 140.01178 35931 ft 400 kts 244°
2026-04-22 18:34 35.32517 139.95302 35935 ft 399 kts 245°
2026-04-22 18:35 35.30214 139.89205 35934 ft 396 kts 252°
2026-04-22 18:35 35.28259 139.82896 35931 ft 397 kts 251°
2026-04-22 18:36 35.26268 139.76586 35937 ft 398 kts 252°
2026-04-22 18:36 35.24270 139.70269 35942 ft 398 kts 252°
2026-04-22 18:37 35.22272 139.63952 35947 ft 398 kts 252°
2026-04-22 18:37 35.20604 139.58691 35952 ft 399 kts 252°
2026-04-22 18:38 35.18652 139.51155 35956 ft 397 kts 259°
2026-04-22 18:38 35.17705 139.44501 35952 ft 398 kts 265°
2026-04-22 18:39 35.17231 139.34373 35968 ft 398 kts 266°
2026-04-22 18:39 35.16932 139.27609 35969 ft 399 kts 266°
2026-04-22 18:40 35.16615 139.20844 35963 ft 399 kts 266°
2026-04-22 18:40 35.16295 139.14117 35961 ft 399 kts 266°
2026-04-22 18:41 35.15967 139.07365 35942 ft 397 kts 266°
2026-04-22 18:41 35.15640 139.00638 35967 ft 397 kts 266°
2026-04-22 18:42 35.15306 138.93902 35960 ft 397 kts 266°
2026-04-22 18:42 35.14967 138.87158 35949 ft 398 kts 266°
2026-04-22 18:43 35.14625 138.80421 35957 ft 397 kts 266°
2026-04-22 18:43 35.14284 138.73733 35949 ft 397 kts 266°
2026-04-22 18:44 35.13934 138.66959 35947 ft 397 kts 266°
2026-04-22 18:44 35.13583 138.60270 35940 ft 397 kts 266°
2026-04-22 18:45 35.13226 138.53502 35945 ft 397 kts 265°
2026-04-22 18:45 35.12870 138.46826 35949 ft 396 kts 265°
2026-04-22 18:46 35.12509 138.40134 35907 ft 393 kts 265°
2026-04-22 18:46 35.12147 138.33481 35937 ft 393 kts 266°
2026-04-22 18:47 35.11842 138.27896 35946 ft 394 kts 266°
2026-04-22 18:47 35.11473 138.21208 35950 ft 396 kts 265°
2026-04-22 18:48 35.11097 138.14517 35954 ft 399 kts 265°
2026-04-22 18:48 35.10712 138.07731 35950 ft 402 kts 265°
2026-04-22 18:49 35.10316 138.00922 35886 ft 401 kts 265°
2026-04-22 18:49 35.09916 137.94172 35975 ft 397 kts 265°
2026-04-22 18:50 35.09518 137.87436 35953 ft 397 kts 265°
2026-04-22 18:50 35.09116 137.80711 35947 ft 397 kts 265°
2026-04-22 18:51 35.08712 137.73994 35947 ft 396 kts 265°
2026-04-22 18:51 35.08125 137.67315 35949 ft 396 kts 260°
2026-04-22 18:52 35.06829 137.60788 35946 ft 396 kts 254°
2026-04-22 18:52 35.04992 137.54436 35940 ft 398 kts 253°
2026-04-22 18:53 35.03139 137.48072 35939 ft 398 kts 253°
2026-04-22 18:53 35.01305 137.41694 35939 ft 398 kts 253°
2026-04-22 18:54 34.99486 137.35329 35946 ft 398 kts 253°
2026-04-22 18:54 34.97662 137.28952 35944 ft 399 kts 253°
2026-04-22 18:55 34.95830 137.22570 35948 ft 399 kts 253°
2026-04-22 18:55 34.93987 137.16179 35943 ft 400 kts 253°
2026-04-22 18:56 34.92143 137.09786 35934 ft 400 kts 253°
2026-04-22 18:56 34.90297 137.03399 35936 ft 399 kts 253°
2026-04-22 18:57 34.88451 136.97025 35935 ft 399 kts 253°
2026-04-22 18:57 34.86600 136.90654 35934 ft 399 kts 253°
2026-04-22 18:58 34.84484 136.84401 35938 ft 401 kts 248°
2026-04-22 18:58 34.82124 136.78304 35934 ft 401 kts 248°
2026-04-22 18:59 34.79757 136.72161 35936 ft 401 kts 248°
2026-04-22 18:59 34.77387 136.66011 35934 ft 402 kts 248°
2026-04-22 19:00 34.75014 136.59855 35935 ft 402 kts 248°
2026-04-22 19:00 34.72636 136.53691 35934 ft 403 kts 248°
2026-04-22 19:01 34.70251 136.47533 35935 ft 403 kts 248°
2026-04-22 19:01 34.67858 136.41362 35933 ft 404 kts 248°
2026-04-22 19:02 34.65457 136.35182 35937 ft 405 kts 248°
2026-04-22 19:02 34.63049 136.28995 35934 ft 405 kts 248°
2026-04-22 19:03 34.60639 136.22809 35937 ft 405 kts 248°
2026-04-22 19:03 34.58213 136.16631 35936 ft 406 kts 247°
2026-04-22 19:04 34.55619 136.10529 35937 ft 407 kts 246°
2026-04-22 19:04 34.52988 136.04478 35937 ft 408 kts 246°
2026-04-22 19:05 34.50333 135.98345 35936 ft 408 kts 246°
2026-04-22 19:05 34.47707 135.92249 35929 ft 408 kts 246°
2026-04-22 19:06 34.45092 135.86183 35929 ft 409 kts 246°
2026-04-22 19:07 34.41135 135.77018 35921 ft 409 kts 246°
2026-04-22 19:07 34.38496 135.70918 35928 ft 408 kts 246°
2026-04-22 19:08 34.35860 135.64835 35914 ft 408 kts 245°
2026-04-22 19:08 34.33223 135.58765 35919 ft 407 kts 245°
2026-04-22 19:09 34.30584 135.52701 35917 ft 407 kts 245°
2026-04-22 19:09 34.27947 135.46652 35915 ft 407 kts 245°
2026-04-22 19:10 34.25308 135.40604 35919 ft 407 kts 245°
2026-04-22 19:10 34.22663 135.34561 35918 ft 407 kts 245°
2026-04-22 19:11 34.20015 135.28517 35911 ft 407 kts 245°
2026-04-22 19:11 34.17365 135.22477 35918 ft 406 kts 245°
2026-04-22 19:12 34.14713 135.16448 35913 ft 406 kts 245°
2026-04-22 19:12 34.12065 135.10434 35918 ft 405 kts 245°
2026-04-22 19:13 34.09437 135.04474 35909 ft 405 kts 245°
2026-04-22 19:13 34.06791 134.98485 35907 ft 404 kts 244°
2026-04-22 19:14 34.04145 134.92508 35907 ft 404 kts 244°
2026-04-22 19:14 34.01497 134.86539 35909 ft 404 kts 244°
2026-04-22 19:15 33.99291 134.81581 35907 ft 404 kts 244°
2026-04-22 19:15 33.96178 134.74591 35909 ft 406 kts 244°
2026-04-22 19:16 33.93496 134.68571 35914 ft 409 kts 244°
2026-04-22 19:16 33.90793 134.62520 35912 ft 411 kts 244°
2026-04-22 19:17 33.88077 134.56456 35902 ft 412 kts 244°
2026-04-22 19:17 33.85359 134.50387 35914 ft 412 kts 243°
2026-04-22 19:18 33.82639 134.44325 35909 ft 412 kts 243°
2026-04-22 19:18 33.79917 134.38276 35906 ft 411 kts 243°
2026-04-22 19:19 33.77201 134.32251 35899 ft 409 kts 243°
2026-04-22 19:19 33.74512 134.26290 35901 ft 408 kts 243°
2026-04-22 19:20 33.71812 134.20317 35905 ft 406 kts 243°
2026-04-22 19:20 33.69116 134.14361 35903 ft 406 kts 243°
2026-04-22 19:21 33.66418 134.08410 35900 ft 406 kts 243°
2026-04-22 19:21 33.63713 134.02462 35903 ft 406 kts 243°
2026-04-22 19:22 33.61009 133.96520 35874 ft 405 kts 243°
2026-04-22 19:22 33.58309 133.90601 35895 ft 405 kts 243°
2026-04-22 19:23 33.55594 133.84642 35893 ft 409 kts 243°
2026-04-22 19:23 33.52855 133.78653 35880 ft 411 kts 243°
2026-04-22 19:24 33.50105 133.72656 35885 ft 411 kts 243°
2026-04-22 19:24 33.47371 133.66699 35889 ft 411 kts 243°
2026-04-22 19:25 33.44617 133.60709 35887 ft 410 kts 243°
2026-04-22 19:25 33.41864 133.54731 35886 ft 410 kts 243°
2026-04-22 19:26 33.39106 133.48748 35881 ft 411 kts 243°
2026-04-22 19:26 33.36345 133.42769 35872 ft 410 kts 243°
2026-04-22 19:27 33.33579 133.36792 35880 ft 411 kts 243°
2026-04-22 19:27 33.30809 133.30813 35878 ft 411 kts 243°
2026-04-22 19:28 33.28031 133.24831 35875 ft 412 kts 243°
2026-04-22 19:28 33.25189 133.18886 35863 ft 413 kts 239°
2026-04-22 19:29 33.21881 133.13255 35870 ft 414 kts 237°
2026-04-22 19:29 33.18559 133.07625 35855 ft 415 kts 237°
2026-04-22 19:30 33.15796 133.02932 35852 ft 415 kts 237°
2026-04-22 19:30 33.11914 132.96344 35844 ft 416 kts 237°
2026-04-22 19:31 33.08586 132.90707 35868 ft 415 kts 237°
2026-04-22 19:31 33.05254 132.85073 35860 ft 416 kts 237°
2026-04-22 19:32 33.01940 132.79476 35842 ft 416 kts 237°
2026-04-22 19:32 32.98601 132.73833 35844 ft 417 kts 237°
2026-04-22 19:33 32.95257 132.68192 35838 ft 416 kts 237°
2026-04-22 19:33 32.92460 132.63481 35836 ft 416 kts 237°
2026-04-22 19:34 32.88572 132.56937 35823 ft 417 kts 237°
2026-04-22 19:34 32.85223 132.51306 35825 ft 417 kts 237°
2026-04-22 19:35 32.81866 132.45677 35819 ft 417 kts 237°
2026-04-22 19:35 32.79049 132.40957 35813 ft 418 kts 237°
2026-04-22 19:36 32.75684 132.35328 35815 ft 418 kts 237°
2026-04-22 19:36 32.72313 132.29695 35815 ft 418 kts 237°
2026-04-22 19:37 32.68938 132.24062 35813 ft 418 kts 237°
2026-04-22 19:37 32.65558 132.18432 35813 ft 419 kts 237°
2026-04-22 19:38 32.62260 132.12793 35816 ft 419 kts 238°
2026-04-22 19:38 32.58948 132.07100 35808 ft 419 kts 237°
2026-04-22 19:39 32.55607 132.01419 35804 ft 420 kts 237°
2026-04-22 19:39 32.52257 131.95748 35807 ft 420 kts 237°
2026-04-22 19:40 32.48903 131.90074 35804 ft 420 kts 237°
2026-04-22 19:40 32.45549 131.84401 35796 ft 420 kts 237°
2026-04-22 19:41 32.42194 131.78731 35795 ft 420 kts 237°
2026-04-22 19:41 32.38835 131.73064 35768 ft 420 kts 237°
2026-04-22 19:42 32.35474 131.67407 35770 ft 420 kts 237°
2026-04-22 19:42 32.32117 131.61765 35769 ft 420 kts 237°
2026-04-22 19:43 32.27076 131.53305 35767 ft 419 kts 237°
2026-04-22 19:43 32.23716 131.47674 35763 ft 419 kts 237°
2026-04-22 19:44 32.20358 131.42059 35783 ft 418 kts 237°
2026-04-22 19:44 32.16995 131.36441 35790 ft 419 kts 237°
2026-04-22 19:45 32.13627 131.30829 35794 ft 419 kts 237°
2026-04-22 19:45 32.10264 131.25228 35799 ft 418 kts 237°
2026-04-22 19:46 32.06897 131.19617 35805 ft 420 kts 237°
2026-04-22 19:46 32.03510 131.13996 35810 ft 421 kts 236°
2026-04-22 19:47 32.00113 131.08374 35815 ft 421 kts 236°
2026-04-22 19:47 31.96719 131.02752 35833 ft 422 kts 237°
2026-04-22 19:48 31.93327 130.97140 35858 ft 424 kts 237°
2026-04-22 19:48 31.89873 130.91442 35893 ft 425 kts 237°
2026-04-22 19:49 31.86458 130.85814 35914 ft 427 kts 237°
2026-04-22 19:49 31.83005 130.80128 35926 ft 427 kts 237°
2026-04-22 19:50 31.79546 130.74442 35935 ft 427 kts 237°
2026-04-22 19:50 31.76087 130.68766 35939 ft 427 kts 237°
2026-04-22 19:51 31.72631 130.63100 35936 ft 426 kts 237°
2026-04-22 19:51 31.69175 130.57453 35941 ft 426 kts 236°
2026-04-22 19:52 31.65584 130.51924 35929 ft 425 kts 234°
2026-04-22 19:52 31.61952 130.46460 35926 ft 424 kts 234°
2026-04-22 19:53 31.58334 130.40991 35922 ft 424 kts 234°
2026-04-22 19:53 31.54731 130.35523 35920 ft 424 kts 234°
2026-04-22 19:54 31.51128 130.30059 35907 ft 423 kts 234°
2026-04-22 19:54 31.47526 130.24601 35908 ft 423 kts 234°
2026-04-22 19:55 31.43922 130.19147 35900 ft 423 kts 234°
2026-04-22 19:55 31.40334 130.13728 35895 ft 424 kts 234°
2026-04-22 19:56 31.36712 130.08263 35883 ft 425 kts 234°
2026-04-22 19:56 31.33083 130.02795 35879 ft 426 kts 234°
2026-04-22 19:57 31.29444 129.97323 35872 ft 426 kts 234°
2026-04-22 19:57 31.25796 129.91847 35878 ft 427 kts 234°
2026-04-22 19:58 31.22135 129.86370 35869 ft 428 kts 234°
2026-04-22 19:58 31.18464 129.80877 35850 ft 429 kts 234°
2026-04-22 20:00 31.05526 129.61585 35855 ft 433 kts 234°
2026-04-22 20:01 31.01806 129.56053 35840 ft 434 kts 234°
2026-04-22 20:01 30.98078 129.50516 35837 ft 434 kts 234°
2026-04-22 20:02 30.94339 129.44971 35842 ft 435 kts 234°
2026-04-22 20:02 30.90591 129.39423 35841 ft 436 kts 234°
2026-04-22 20:03 30.86837 129.33875 35840 ft 436 kts 234°
2026-04-22 20:03 30.83077 129.28324 35834 ft 437 kts 234°
2026-04-22 20:04 30.79339 129.22812 35832 ft 437 kts 234°
2026-04-22 20:04 30.75590 129.17248 35835 ft 437 kts 235°
2026-04-22 20:05 30.71903 129.11628 35833 ft 437 kts 235°
2026-04-22 20:05 30.68225 129.06007 35834 ft 438 kts 235°
2026-04-22 20:06 30.64532 129.00387 35828 ft 438 kts 235°
2026-04-22 20:06 30.60832 128.94777 35836 ft 437 kts 235°
2026-04-22 20:07 30.57132 128.89173 35835 ft 437 kts 235°
2026-04-22 20:07 30.53425 128.83571 35804 ft 438 kts 235°
2026-04-22 20:08 30.49708 128.77961 35799 ft 439 kts 235°
2026-04-22 20:08 30.45986 128.72351 35789 ft 439 kts 235°
2026-04-22 20:09 30.42261 128.66740 35784 ft 439 kts 235°
2026-04-22 20:09 30.38536 128.61136 35786 ft 440 kts 235°
2026-04-22 20:10 30.34797 128.55520 35787 ft 440 kts 235°
2026-04-22 20:10 30.31050 128.49909 35782 ft 441 kts 235°
2026-04-22 20:11 30.27325 128.44330 35784 ft 441 kts 235°
2026-04-22 20:11 30.23572 128.38718 35790 ft 442 kts 235°
2026-04-22 20:12 30.19810 128.33100 35798 ft 442 kts 235°
2026-04-22 20:12 30.16651 128.28390 35784 ft 443 kts 234°
2026-04-22 20:13 30.12261 128.21853 35781 ft 443 kts 235°
2026-04-22 20:13 30.08475 128.16225 35766 ft 444 kts 234°
2026-04-22 20:14 30.04687 128.10602 35777 ft 444 kts 234°
2026-04-22 20:14 30.00893 128.04975 35780 ft 444 kts 234°
2026-04-22 20:15 29.97097 127.99356 35786 ft 444 kts 234°
2026-04-22 20:15 29.93299 127.93738 35767 ft 444 kts 234°
2026-04-22 20:16 29.89499 127.88125 35773 ft 444 kts 234°
2026-04-22 20:16 29.85692 127.82530 35777 ft 444 kts 233°
2026-04-22 20:17 29.81684 127.77108 35787 ft 444 kts 232°
2026-04-22 20:17 29.77617 127.71749 35783 ft 444 kts 232°
2026-04-22 20:18 29.73578 127.66377 35772 ft 444 kts 232°
2026-04-22 20:18 29.69552 127.60992 35770 ft 444 kts 232°
2026-04-22 20:19 29.65528 127.55612 35764 ft 443 kts 232°
2026-04-22 20:19 29.61509 127.50245 35771 ft 443 kts 232°
2026-04-22 20:20 29.57505 127.44880 35790 ft 441 kts 233°
2026-04-22 20:20 29.54322 127.40308 35792 ft 440 kts 235°
2026-04-22 20:21 29.49947 127.33873 35791 ft 440 kts 235°
2026-04-22 20:21 29.46775 127.29246 35790 ft 439 kts 235°
2026-04-22 20:22 29.43007 127.23793 35783 ft 439 kts 235°
2026-04-22 20:22 29.39189 127.18285 35792 ft 438 kts 235°
2026-04-22 20:23 29.35417 127.12853 35791 ft 438 kts 235°
2026-04-22 20:23 29.31621 127.07392 35790 ft 438 kts 235°
2026-04-22 20:24 29.27826 127.01938 35782 ft 437 kts 235°
2026-04-22 20:24 29.24035 126.96498 35787 ft 437 kts 235°
2026-04-22 20:25 29.20243 126.91064 35788 ft 437 kts 235°
2026-04-22 20:25 29.16456 126.85643 35788 ft 436 kts 235°
2026-04-22 20:26 29.12660 126.80216 35781 ft 436 kts 235°
2026-04-22 20:26 29.08869 126.74806 35785 ft 436 kts 235°
2026-04-22 20:27 29.05081 126.69405 35785 ft 435 kts 235°
2026-04-22 20:27 29.01317 126.64040 35805 ft 435 kts 235°
2026-04-22 20:28 28.97530 126.58656 35810 ft 435 kts 235°
2026-04-22 20:28 28.93672 126.53335 35817 ft 435 kts 234°
2026-04-22 20:29 28.89747 126.48079 35835 ft 434 kts 234°
2026-04-22 20:29 28.85830 126.42826 35843 ft 434 kts 234°
2026-04-22 20:30 28.81922 126.37565 35841 ft 435 kts 234°
2026-04-22 20:30 28.78010 126.32300 35845 ft 435 kts 234°
2026-04-22 20:31 28.74090 126.27032 35847 ft 436 kts 234°
2026-04-22 20:31 28.70162 126.21762 35842 ft 436 kts 234°
2026-04-22 20:32 28.66235 126.16496 35849 ft 436 kts 234°
2026-04-22 20:32 28.62316 126.11217 35841 ft 436 kts 235°
2026-04-22 20:33 28.58502 126.05850 35839 ft 436 kts 236°
2026-04-22 20:33 28.54714 126.00466 35843 ft 436 kts 236°
2026-04-22 20:34 28.50915 125.95096 35841 ft 435 kts 235°
2026-04-22 20:34 28.47111 125.89745 35849 ft 435 kts 235°
2026-04-22 20:35 28.43311 125.84410 35836 ft 435 kts 235°
2026-04-22 20:35 28.39503 125.79069 35823 ft 435 kts 235°
2026-04-22 20:36 28.35718 125.73771 35823 ft 435 kts 235°
2026-04-22 20:36 28.31910 125.68443 35824 ft 435 kts 235°
2026-04-22 20:37 28.28099 125.63117 35826 ft 434 kts 235°
2026-04-22 20:37 28.24286 125.57802 35822 ft 434 kts 235°
2026-04-22 20:38 28.20474 125.52491 35825 ft 434 kts 235°
2026-04-22 20:38 28.16661 125.47184 35822 ft 434 kts 235°
2026-04-22 20:39 28.12846 125.41880 35824 ft 434 kts 235°
2026-04-22 20:39 28.09032 125.36588 35826 ft 434 kts 235°
2026-04-22 20:40 28.05214 125.31294 35830 ft 434 kts 235°
2026-04-22 20:40 28.01394 125.26005 35836 ft 433 kts 235°
2026-04-22 20:41 27.97584 125.20736 35827 ft 433 kts 235°
2026-04-22 20:41 27.93756 125.15451 35832 ft 434 kts 235°
2026-04-22 20:42 27.89925 125.10161 35831 ft 436 kts 235°
2026-04-22 20:42 27.86073 125.04852 35827 ft 437 kts 234°
2026-04-22 20:43 27.82208 124.99537 35823 ft 438 kts 234°
2026-04-22 20:43 27.78343 124.94224 35821 ft 438 kts 234°
2026-04-22 20:44 27.74495 124.88941 35808 ft 438 kts 234°
2026-04-22 20:44 27.70619 124.83627 35804 ft 438 kts 234°
2026-04-22 20:45 27.66746 124.78323 35804 ft 437 kts 234°
2026-04-22 20:45 27.62883 124.73037 35808 ft 437 kts 234°
2026-04-22 20:46 27.57097 124.65118 35808 ft 435 kts 234°
2026-04-22 20:46 27.53249 124.59852 35804 ft 435 kts 234°
2026-04-22 20:47 27.49424 124.54622 35806 ft 435 kts 234°
2026-04-22 20:47 27.45553 124.49336 35806 ft 435 kts 234°
2026-04-22 20:48 27.41728 124.44119 35815 ft 435 kts 234°
2026-04-22 20:48 27.37876 124.38873 35814 ft 435 kts 234°
2026-04-22 20:49 27.34020 124.33624 35816 ft 435 kts 234°
2026-04-22 20:49 27.30157 124.28373 35815 ft 436 kts 234°
2026-04-22 20:50 27.26285 124.23121 35815 ft 436 kts 234°
2026-04-22 20:50 27.22413 124.17871 35812 ft 437 kts 234°
2026-04-22 20:51 27.18527 124.12609 35814 ft 438 kts 234°
2026-04-22 20:51 27.14631 124.07340 35814 ft 439 kts 234°
2026-04-22 20:52 27.10730 124.02066 35813 ft 439 kts 234°
2026-04-22 20:52 27.06813 123.96809 35811 ft 440 kts 233°
2026-04-22 20:53 27.02854 123.91564 35801 ft 440 kts 233°
2026-04-22 20:53 26.98895 123.86325 35797 ft 440 kts 233°
2026-04-22 20:54 26.94941 123.81086 35794 ft 441 kts 233°
2026-04-22 20:54 26.91003 123.75878 35796 ft 441 kts 233°
2026-04-22 20:55 26.87037 123.70636 35798 ft 441 kts 233°
2026-04-22 20:55 26.83064 123.65390 35794 ft 442 kts 233°
2026-04-22 20:56 26.79085 123.60142 35796 ft 442 kts 233°
2026-04-22 20:56 26.75099 123.54894 35797 ft 442 kts 233°
2026-04-22 20:57 26.71119 123.49654 35804 ft 443 kts 233°
2026-04-22 20:57 26.67125 123.44403 35799 ft 443 kts 233°
2026-04-22 20:58 26.63122 123.39150 35793 ft 444 kts 233°
2026-04-22 20:58 26.59119 123.33897 35793 ft 444 kts 233°
2026-04-22 20:59 26.55129 123.28661 35799 ft 445 kts 233°
2026-04-22 20:59 26.51111 123.23396 35794 ft 445 kts 233°
2026-04-22 21:00 26.47090 123.18135 35797 ft 445 kts 233°
2026-04-22 21:00 26.43072 123.12883 35799 ft 445 kts 233°
2026-04-22 21:01 26.39054 123.07634 35796 ft 445 kts 233°
2026-04-22 21:01 26.35032 123.02390 35795 ft 445 kts 233°
2026-04-22 21:02 26.31009 122.97158 35799 ft 445 kts 233°
2026-04-22 21:02 26.26972 122.91930 35799 ft 445 kts 233°
2026-04-22 21:03 26.22932 122.86703 35796 ft 445 kts 233°
2026-04-22 21:03 26.18889 122.81475 35794 ft 445 kts 233°
2026-04-22 21:04 26.14842 122.76248 35780 ft 446 kts 233°
2026-04-22 21:04 26.10794 122.71022 35787 ft 446 kts 233°
2026-04-22 21:05 26.06766 122.65834 35789 ft 446 kts 233°
2026-04-22 21:05 26.02680 122.60575 35788 ft 447 kts 233°
2026-04-22 21:06 25.98622 122.55355 35786 ft 447 kts 233°
2026-04-22 21:06 25.94548 122.50121 35789 ft 448 kts 233°
2026-04-22 21:07 25.90466 122.44868 35781 ft 450 kts 233°
2026-04-22 21:07 25.86403 122.39632 35769 ft 451 kts 233°
2026-04-22 21:08 25.82305 122.34358 35770 ft 451 kts 233°
2026-04-22 21:08 25.78199 122.29079 35769 ft 451 kts 233°
2026-04-22 21:09 25.74095 122.23808 35782 ft 451 kts 233°
2026-04-22 21:09 25.69992 122.18547 35782 ft 450 kts 233°
2026-04-22 21:10 25.66586 122.14183 35773 ft 450 kts 233°
2026-04-22 21:10 25.62485 122.08936 35773 ft 450 kts 233°
2026-04-22 21:11 25.58382 122.03702 35784 ft 450 kts 233°
2026-04-22 21:11 25.54273 121.98481 35784 ft 449 kts 233°
2026-04-22 21:12 25.50167 121.93267 35766 ft 449 kts 233°
2026-04-22 21:12 25.46066 121.88063 35789 ft 449 kts 233°
2026-04-22 21:13 25.41966 121.82863 35767 ft 448 kts 232°
2026-04-22 21:13 25.37874 121.77678 35768 ft 447 kts 232°
2026-04-22 21:14 25.33784 121.72504 35770 ft 447 kts 232°
2026-04-22 21:14 25.29695 121.67335 35768 ft 446 kts 232°
2026-04-22 21:15 25.25633 121.62205 35787 ft 447 kts 232°
2026-04-22 21:15 25.21536 121.57034 35756 ft 447 kts 232°
2026-04-22 21:16 25.17439 121.51874 35783 ft 447 kts 233°
2026-04-22 21:16 25.13385 121.46653 35765 ft 448 kts 233°
2026-04-22 21:17 25.09347 121.41402 35789 ft 449 kts 233°
2026-04-22 21:17 25.05290 121.36143 35767 ft 451 kts 233°
2026-04-22 21:18 25.01215 121.30876 35785 ft 452 kts 233°
2026-04-22 21:18 24.97124 121.25600 35788 ft 453 kts 233°
2026-04-22 21:19 24.93030 121.20320 35766 ft 453 kts 233°
2026-04-22 21:19 24.88932 121.15044 35769 ft 453 kts 233°
2026-04-22 21:20 24.84836 121.09777 35784 ft 453 kts 233°
2026-04-22 21:20 24.80738 121.04507 35787 ft 453 kts 233°
2026-04-22 21:21 24.76649 120.99236 35791 ft 453 kts 233°
2026-04-22 21:21 24.72559 120.93968 35804 ft 453 kts 233°
2026-04-22 21:22 24.68458 120.88693 35816 ft 453 kts 233°
2026-04-22 21:22 24.64364 120.83432 35830 ft 453 kts 233°
2026-04-22 21:23 24.60264 120.78169 35835 ft 453 kts 233°
2026-04-22 21:23 24.56155 120.72908 35843 ft 454 kts 232°
2026-04-22 21:24 24.51798 120.67855 35862 ft 456 kts 230°
2026-04-22 21:24 24.47366 120.62859 35874 ft 457 kts 230°
2026-04-22 21:25 24.42937 120.57849 35882 ft 457 kts 230°
2026-04-22 21:25 24.38540 120.52856 35881 ft 458 kts 230°
2026-04-22 21:26 24.34107 120.47825 35885 ft 459 kts 230°
2026-04-22 21:26 24.29641 120.42766 35880 ft 459 kts 230°
2026-04-22 21:27 24.25226 120.37768 35882 ft 459 kts 230°
2026-04-22 21:27 24.20795 120.32722 35880 ft 459 kts 230°
2026-04-22 21:28 24.16382 120.27659 35881 ft 460 kts 230°
2026-04-22 21:28 24.11939 120.22613 35884 ft 460 kts 230°
2026-04-22 21:29 24.07493 120.17565 35873 ft 461 kts 230°
2026-04-22 21:29 24.03033 120.12502 35860 ft 462 kts 230°
2026-04-22 21:30 23.98571 120.07449 35863 ft 462 kts 230°
2026-04-22 21:30 23.94085 120.02409 35880 ft 462 kts 229°
2026-04-22 21:31 23.89597 119.97375 35879 ft 462 kts 229°
2026-04-22 21:31 23.85113 119.92346 35871 ft 462 kts 229°
2026-04-22 21:32 23.80632 119.87324 35860 ft 461 kts 229°
2026-04-22 21:32 23.76151 119.82307 35853 ft 461 kts 229°
2026-04-22 21:33 23.71703 119.77328 35862 ft 461 kts 229°
2026-04-22 21:33 23.67193 119.72287 35853 ft 461 kts 229°
2026-04-22 21:34 23.62746 119.67322 35868 ft 461 kts 229°
2026-04-22 21:34 23.58552 119.62077 35855 ft 457 kts 237°
2026-04-22 21:35 23.55134 119.56260 35863 ft 456 kts 241°
2026-04-22 21:35 23.51771 119.50389 35853 ft 457 kts 241°
2026-04-22 21:36 23.48380 119.44515 35855 ft 458 kts 240°
2026-04-22 21:36 23.44974 119.38648 35871 ft 459 kts 240°
2026-04-22 21:37 23.41557 119.32772 35853 ft 459 kts 240°
2026-04-22 21:37 23.38136 119.26896 35853 ft 459 kts 240°
2026-04-22 21:38 23.34712 119.21023 35855 ft 459 kts 240°
2026-04-22 21:38 23.31289 119.15157 35867 ft 459 kts 240°
2026-04-22 21:39 23.27866 119.09292 35867 ft 459 kts 240°
2026-04-22 21:39 23.24439 119.03429 35866 ft 459 kts 240°
2026-04-22 21:40 23.21008 118.97572 35849 ft 459 kts 240°
2026-04-22 21:40 23.17582 118.91726 35849 ft 459 kts 240°
2026-04-22 21:41 23.14153 118.85882 35850 ft 458 kts 240°
2026-04-22 21:41 23.10721 118.80043 35848 ft 459 kts 240°
2026-04-22 21:42 23.07307 118.74235 35847 ft 459 kts 240°
2026-04-22 21:42 23.03867 118.68391 35849 ft 459 kts 240°
2026-04-22 21:43 23.00423 118.62545 35856 ft 460 kts 240°
2026-04-22 21:43 22.96978 118.56704 35848 ft 460 kts 240°
2026-04-22 21:44 22.93512 118.50849 35857 ft 461 kts 240°
2026-04-22 21:44 22.90035 118.45006 35841 ft 461 kts 240°
2026-04-22 21:45 22.86558 118.39167 35841 ft 461 kts 240°
2026-04-22 21:45 22.83075 118.33319 35843 ft 462 kts 240°
2026-04-22 21:46 22.79589 118.27472 35841 ft 462 kts 240°
2026-04-22 21:46 22.76100 118.21628 35841 ft 462 kts 240°
2026-04-22 21:47 22.72607 118.15783 35842 ft 462 kts 240°
2026-04-22 21:47 22.69104 118.09925 35842 ft 463 kts 240°
2026-04-22 21:48 22.65596 118.04068 35852 ft 464 kts 240°
2026-04-22 21:48 22.62073 117.98191 35835 ft 466 kts 240°
2026-04-22 21:49 22.58549 117.92307 35826 ft 466 kts 240°
2026-04-22 21:49 22.55045 117.86415 35825 ft 466 kts 240°
2026-04-22 21:50 22.51560 117.80555 35824 ft 466 kts 240°
2026-04-22 21:50 22.48049 117.74667 35824 ft 466 kts 240°
2026-04-22 21:51 22.44534 117.68782 35823 ft 466 kts 240°
2026-04-22 21:52 22.39271 117.59972 35824 ft 465 kts 240°
2026-04-22 21:52 22.35793 117.54081 35822 ft 464 kts 244°
2026-04-22 21:53 22.33616 117.47610 35825 ft 457 kts 259°
2026-04-22 21:53 22.33011 117.40820 35830 ft 454 kts 270°
2026-04-22 21:54 22.32950 117.33994 35824 ft 454 kts 270°
2026-04-22 21:54 22.32878 117.27169 35825 ft 454 kts 270°
2026-04-22 21:55 22.32769 117.20348 35824 ft 454 kts 270°
2026-04-22 21:55 22.32642 117.13539 35825 ft 454 kts 270°
2026-04-22 21:56 22.32506 117.06728 35824 ft 453 kts 270°
2026-04-22 21:56 22.32371 116.99972 35826 ft 452 kts 270°
2026-04-22 21:57 22.32234 116.93184 35822 ft 452 kts 270°
2026-04-22 21:57 22.32094 116.86405 35823 ft 451 kts 270°
2026-04-22 21:58 22.31951 116.79629 35824 ft 451 kts 270°
2026-04-22 21:58 22.31805 116.72850 35823 ft 451 kts 270°
2026-04-22 21:59 22.31683 116.67225 35824 ft 451 kts 270°
2026-04-22 21:59 22.31533 116.60442 35825 ft 451 kts 270°
2026-04-22 22:00 22.31380 116.53662 35824 ft 452 kts 270°
2026-04-22 22:00 22.31225 116.46877 35824 ft 452 kts 270°
2026-04-22 22:01 22.31064 116.40088 35825 ft 452 kts 270°
2026-04-22 22:01 22.30901 116.33307 35821 ft 452 kts 270°
2026-04-22 22:02 22.30737 116.26517 35825 ft 452 kts 270°
2026-04-22 22:02 22.30569 116.19718 35826 ft 453 kts 270°
2026-04-22 22:03 22.30399 116.12916 35825 ft 453 kts 270°
2026-04-22 22:03 22.30227 116.06157 35822 ft 453 kts 270°
2026-04-22 22:04 22.30049 115.99347 35735 ft 455 kts 269°
2026-04-22 22:04 22.29957 115.95832 34808 ft 467 kts 270°
2026-04-22 22:04 22.29866 115.92388 33992 ft 466 kts 269°
2026-04-22 22:04 22.29772 115.88884 33067 ft 467 kts 270°
2026-04-22 22:05 22.29678 115.85376 32107 ft 468 kts 269°
2026-04-22 22:05 22.29584 115.81855 31095 ft 470 kts 269°
2026-04-22 22:05 22.29501 115.78324 30205 ft 469 kts 269°
2026-04-22 22:05 22.29427 115.74816 29448 ft 466 kts 269°
2026-04-22 22:06 22.29353 115.71334 28694 ft 463 kts 269°
2026-04-22 22:06 22.29274 115.67871 27950 ft 460 kts 268°
2026-04-22 22:06 22.29184 115.64424 27234 ft 457 kts 268°
2026-04-22 22:06 22.29088 115.61016 26508 ft 453 kts 268°
2026-04-22 22:07 22.28989 115.57624 25794 ft 450 kts 268°
2026-04-22 22:07 22.28891 115.54257 25089 ft 447 kts 268°
2026-04-22 22:07 22.28796 115.50915 24392 ft 443 kts 268°
2026-04-22 22:07 22.28703 115.47603 23701 ft 440 kts 268°
2026-04-22 22:08 22.28608 115.44314 23027 ft 436 kts 268°
2026-04-22 22:08 22.28514 115.41054 22354 ft 433 kts 268°
2026-04-22 22:08 22.28420 115.37819 21683 ft 429 kts 268°
2026-04-22 22:08 22.28327 115.34620 21037 ft 426 kts 268°
2026-04-22 22:09 22.28233 115.31439 20382 ft 422 kts 268°
2026-04-22 22:09 22.28136 115.28282 19743 ft 418 kts 268°
2026-04-22 22:09 22.28040 115.25157 19118 ft 415 kts 268°
2026-04-22 22:09 22.27944 115.22057 18488 ft 411 kts 268°
2026-04-22 22:10 22.27848 115.18990 17867 ft 408 kts 268°
2026-04-22 22:10 22.27753 115.15933 17231 ft 405 kts 268°
2026-04-22 22:10 22.27659 115.12914 16638 ft 402 kts 268°
2026-04-22 22:10 22.27566 115.09961 16056 ft 397 kts 267°
2026-04-22 22:11 22.27471 115.06992 15486 ft 394 kts 267°
2026-04-22 22:11 22.27377 115.04048 14919 ft 390 kts 267°
2026-04-22 22:11 22.27283 115.01136 14335 ft 380 kts 267°
2026-04-22 22:11 22.27192 114.98303 13669 ft 378 kts 267°
2026-04-22 22:12 22.27099 114.95468 13070 ft 377 kts 267°
2026-04-22 22:12 22.27007 114.92648 12496 ft 375 kts 267°
2026-04-22 22:12 22.26911 114.89847 11976 ft 371 kts 267°
2026-04-22 22:12 22.26815 114.87077 11460 ft 368 kts 267°
2026-04-22 22:13 22.26720 114.84343 11216 ft 358 kts 267°
2026-04-22 22:13 22.26629 114.81719 11022 ft 340 kts 267°
2026-04-22 22:13 22.26543 114.79228 10877 ft 326 kts 267°
2026-04-22 22:13 22.26365 114.76822 10613 ft 319 kts 261°
2026-04-22 22:14 22.25946 114.74517 10300 ft 305 kts 257°
2026-04-22 22:14 22.25482 114.72361 10164 ft 287 kts 256°
2026-04-22 22:14 22.25029 114.70286 9925 ft 282 kts 256°
2026-04-22 22:14 22.24592 114.68243 9661 ft 278 kts 257°
2026-04-22 22:15 22.24169 114.66219 9401 ft 275 kts 257°
2026-04-22 22:15 22.23755 114.64205 9137 ft 274 kts 257°
2026-04-22 22:15 22.23347 114.62198 8868 ft 273 kts 257°
2026-04-22 22:15 22.22945 114.60198 8608 ft 272 kts 257°
2026-04-22 22:16 22.22543 114.58202 8345 ft 272 kts 257°
2026-04-22 22:16 22.22145 114.56206 8081 ft 272 kts 257°
2026-04-22 22:16 22.21746 114.54212 7815 ft 272 kts 257°
2026-04-22 22:16 22.21349 114.52223 7550 ft 272 kts 257°
2026-04-22 22:17 22.20951 114.50231 7287 ft 271 kts 257°
2026-04-22 22:17 22.20552 114.48240 7023 ft 271 kts 257°
2026-04-22 22:17 22.20158 114.46259 6755 ft 270 kts 257°
2026-04-22 22:17 22.19761 114.44277 6490 ft 270 kts 257°
2026-04-22 22:18 22.19585 114.42299 6204 ft 264 kts 277°
2026-04-22 22:18 22.20240 114.40456 6004 ft 266 kts 302°
2026-04-22 22:18 22.21499 114.39001 5934 ft 269 kts 318°
2026-04-22 22:18 22.23174 114.38021 5873 ft 281 kts 335°
2026-04-22 22:19 22.25044 114.37324 5781 ft 286 kts 339°
2026-04-22 22:19 22.26934 114.36684 5683 ft 283 kts 339°
2026-04-22 22:19 22.28811 114.36041 5614 ft 283 kts 339°
2026-04-22 22:19 22.30679 114.35382 5525 ft 282 kts 338°
2026-04-22 22:20 22.32534 114.34708 5445 ft 282 kts 338°
2026-04-22 22:20 22.34355 114.34046 5367 ft 277 kts 338°
2026-04-22 22:20 22.36148 114.33391 5279 ft 267 kts 338°
2026-04-22 22:20 22.37866 114.32758 5191 ft 256 kts 338°
2026-04-22 22:21 22.39382 114.31950 5086 ft 232 kts 313°
2026-04-22 22:21 22.40233 114.30616 5109 ft 205 kts 290°
2026-04-22 22:21 22.40630 114.29200 5020 ft 191 kts 279°
2026-04-22 22:21 22.40888 114.27789 4998 ft 195 kts 278°
2026-04-22 22:22 22.41144 114.26346 4916 ft 194 kts 279°
2026-04-22 22:22 22.41393 114.24953 4876 ft 183 kts 277°
2026-04-22 22:22 22.41564 114.23605 4784 ft 181 kts 263°
2026-04-22 22:22 22.41311 114.22255 4794 ft 188 kts 256°
2026-04-22 22:23 22.40979 114.20873 4722 ft 190 kts 253°
2026-04-22 22:23 22.40594 114.19519 4623 ft 186 kts 251°
2026-04-22 22:23 22.40195 114.18205 4588 ft 184 kts 251°
2026-04-22 22:23 22.39782 114.16891 4534 ft 185 kts 251°
2026-04-22 22:24 22.39355 114.15553 4331 ft 190 kts 250°
2026-04-22 22:24 22.38923 114.14199 4080 ft 190 kts 250°
2026-04-22 22:24 22.38497 114.12868 3836 ft 185 kts 250°
2026-04-22 22:24 22.38077 114.11561 3577 ft 183 kts 250°
2026-04-22 22:25 22.37673 114.10295 3374 ft 177 kts 250°
2026-04-22 22:25 22.37273 114.09056 3134 ft 168 kts 250°
2026-04-22 22:25 22.36907 114.07911 2907 ft 161 kts 250°
2026-04-22 22:25 22.36539 114.06761 2702 ft 163 kts 250°
2026-04-22 22:26 22.36167 114.05601 2492 ft 164 kts 249°
2026-04-22 22:26 22.35791 114.04435 2272 ft 164 kts 249°
2026-04-22 22:26 22.35418 114.03268 2056 ft 165 kts 249°
2026-04-22 22:26 22.35044 114.02104 1857 ft 162 kts 249°
2026-04-22 22:27 22.34677 114.00957 1619 ft 159 kts 249°
2026-04-22 22:27 22.34328 113.99866 1410 ft 148 kts 249°
2026-04-22 22:27 22.33994 113.98830 1248 ft 148 kts 248°
2026-04-22 22:27 22.33652 113.97772 1047 ft 150 kts 249°
2026-04-22 22:28 22.33311 113.96705 829 ft 150 kts 248°
2026-04-22 22:28 22.32972 113.95647 627 ft 148 kts 249°
2026-04-22 22:28 22.32634 113.94597 425 ft 148 kts 249°
2026-04-22 22:28 22.32299 113.93544 243 ft 148 kts 249°
2026-04-22 22:29 22.31957 113.92485 51 ft 150 kts 249°
2026-04-22 22:29 22.31642 113.91507 37 ft 118 kts 251°
2026-04-22 22:29 22.31432 113.90858 36 ft 65 kts 251°
2026-04-22 22:29 22.31326 113.90530 36 ft 40 kts 251°
2026-04-22 22:30 22.31231 113.90302 35 ft 29 kts 234°
2026-04-22 22:30 22.31140 113.90196 35 ft 16 kts 223°
2026-04-22 22:30 22.31070 113.90132 37 ft 11 kts 220°
2026-04-22 22:30 22.30997 113.90110 37 ft 11 kts 172°
2026-04-22 22:31 22.30939 113.90161 36 ft 11 kts 106°
2026-04-22 22:31 22.30957 113.90244 37 ft 12 kts 71°
2026-04-22 22:31 22.30984 113.90327 37 ft 12 kts 71°
2026-04-22 22:31 22.31010 113.90409 37 ft 12 kts 71°
2026-04-22 22:32 22.31038 113.90496 37 ft 14 kts 70°
2026-04-22 22:32 22.31075 113.90610 37 ft 18 kts 71°
2026-04-22 22:32 22.31119 113.90747 37 ft 20 kts 71°
2026-04-22 22:32 22.31164 113.90887 37 ft 20 kts 71°
2026-04-22 22:33 22.31209 113.91026 37 ft 20 kts 70°
2026-04-22 22:33 22.31254 113.91166 37 ft 20 kts 71°
2026-04-22 22:33 22.31298 113.91305 37 ft 20 kts 71°
2026-04-22 22:33 22.31344 113.91444 37 ft 20 kts 70°
2026-04-22 22:34 22.31389 113.91584 37 ft 20 kts 70°
2026-04-22 22:34 22.31433 113.91721 37 ft 20 kts 71°
2026-04-22 22:34 22.31478 113.91861 37 ft 20 kts 70°
2026-04-22 22:34 22.31524 113.91999 37 ft 20 kts 71°
2026-04-22 22:35 22.31568 113.92139 37 ft 20 kts 71°
2026-04-22 22:35 22.31613 113.92279 37 ft 20 kts 71°
2026-04-22 22:35 22.31645 113.92394 37 ft 15 kts 86°
2026-04-22 22:35 22.31610 113.92496 37 ft 13 kts 116°
2026-04-22 22:36 22.31576 113.92571 37 ft 8 kts 116°
2026-04-22 22:36 22.31554 113.92603 37 ft 4 kts 150°
2026-04-22 22:36 22.31523 113.92596 37 ft 5 kts 204°
2026-04-22 22:36 22.31492 113.92580 37 ft 3 kts 206°
2026-04-22 22:37 22.31474 113.92570 37 ft 3 kts 206°
2026-04-22 22:37 22.31471 113.92568 37 ft 0 kts 206°
2026-04-22 22:37 22.31469 113.92567 37 ft 0 kts 206°